| time (UTC) | temp F | wind direction | speed knots | gust knots | rain 1hr in | rain 24hr in | rain mn in | humidity % | barometer mb |
| 20260509232036 | 61 | 255 | 0.0 | 4.3 | 0.00 | 0.00 | 0.00 | 39 | 1010.9 |
| 20260509231930 | 61 | 255 | 0.0 | 4.3 | 0.00 | 0.00 | 0.00 | 37 | 1010.9 |
| 20260509231729 | 61 | 258 | 0.0 | 5.2 | 0.00 | 0.00 | 0.00 | 36 | 1010.8 |
| 20260509231536 | 61 | 117 | 0.0 | 5.2 | 0.00 | 0.00 | 0.00 | 38 | 1010.7 |
| 20260509231532 | 61 | 107 | 0.0 | 5.2 | 0.00 | 0.00 | 0.00 | 38 | 1010.7 |
| 20260509231428 | 61 | 45 | 0.0 | 8.7 | 0.00 | 0.00 | 0.00 | 38 | 1010.8 |
| 20260509231129 | 61 | 171 | 0.0 | 8.7 | 0.00 | 0.00 | 0.00 | 37 | 1010.7 |
| 20260509231033 | 61 | 141 | 0.0 | 8.7 | 0.00 | 0.00 | 0.00 | 37 | 1010.6 |
| 20260509230931 | 61 | 8 | 0.0 | 8.7 | 0.00 | 0.00 | 0.00 | 34 | 1010.7 |
| 20260509230917 | 61 | 45 | 0.0 | 8.7 | 0.00 | 0.00 | 0.00 | 34 | 1010.7 |
| 20260509230831 | 62 | 228 | 0.0 | 8.7 | 0.00 | 0.00 | 0.00 | 35 | 1010.7 |
| 20260509230532 | 62 | 228 | 0.0 | 8.7 | 0.00 | 0.00 | 0.00 | 35 | 1010.7 |
| 20260509230332 | 61 | 228 | 0.0 | 4.3 | 0.00 | 0.00 | 0.00 | 38 | 1010.5 |
| 20260509230327 | 62 | 245 | 0.0 | 6.1 | 0.00 | 0.00 | 0.00 | 35 | 1010.7 |
| 20260509230257 | 62 | 228 | 0.0 | 4.3 | 0.00 | 0.00 | 0.00 | 38 | 1010.5 |
| 20260509225921 | 61 | 221 | 0.0 | 4.3 | 0.00 | 0.00 | 0.00 | 37 | 1010.5 |
| 20260509225721 | 61 | 213 | 0.0 | 5.2 | 0.00 | 0.00 | 0.00 | 36 | 1010.5 |
| 20260509225529 | 61 | 227 | 0.0 | 5.2 | 0.00 | 0.00 | 0.00 | 36 | 1010.6 |
| 20260509225521 | 61 | 223 | 0.0 | 5.2 | 0.00 | 0.00 | 0.00 | 36 | 1010.6 |
| 20260509225355 | 62 | 340 | 0.0 | 5.2 | 0.00 | 0.00 | 0.00 | 35 | 1010.5 |
| 20260509225329 | 62 | 340 | 0.0 | 5.2 | 0.00 | 0.00 | 0.00 | 34 | 1010.4 |
| 20260509225323 | 61 | 0 | 0.0 | 5.2 | 0.00 | 0.00 | 0.00 | 34 | 1010.5 |
| 20260509224915 | 62 | 6 | 0.0 | 5.2 | 0.00 | 0.00 | 0.00 | 35 | 1010.5 |
| 20260509224715 | 62 | 3 | 0.0 | 4.3 | 0.00 | 0.00 | 0.00 | 36 | 1010.4 |
| 20260509224529 | 62 | 290 | 0.0 | 6.1 | 0.00 | 0.00 | 0.00 | 36 | 1010.5 |
| 20260509224513 | 62 | 247 | 0.0 | 6.1 | 0.00 | 0.00 | 0.00 | 36 | 1010.5 |
| 20260509224335 | 61 | 166 | 0.0 | 6.1 | 0.00 | 0.00 | 0.00 | 39 | 1010.2 |
| 20260509224326 | 61 | 176 | 0.0 | 6.1 | 0.00 | 0.00 | 0.00 | 35 | 1010.3 |
| 20260509224255 | 61 | 87 | 0.0 | 6.1 | 0.00 | 0.00 | 0.00 | 36 | 1010.3 |
| 20260509223914 | 61 | 8 | 0.0 | 7.8 | 0.00 | 0.00 | 0.00 | 37 | 1010.3 |
| 20260509223712 | 61 | 1 | 0.0 | 7.8 | 0.00 | 0.00 | 0.00 | 34 | 1010.3 |
| 20260509223608 | 61 | 6 | 0.0 | 7.8 | 0.00 | 0.00 | 0.00 | 35 | 1010.3 |
| 20260509223526 | 61 | 344 | 0.0 | 7.8 | 0.00 | 0.00 | 0.00 | 35 | 1010.3 |
| 20260509223327 | 62 | 37 | 0.0 | 7.8 | 0.00 | 0.00 | 0.00 | 34 | 1010.3 |
| 20260509223321 | 62 | 341 | 0.0 | 7.8 | 0.00 | 0.00 | 0.00 | 33 | 1010.4 |
| 20260509223251 | 62 | 75 | 0.0 | 7.8 | 0.00 | 0.00 | 0.00 | 34 | 1010.2 |
| 20260509222909 | 62 | 293 | 0.0 | 6.1 | 0.00 | 0.00 | 0.00 | 35 | 1010.3 |
| 20260509222711 | 62 | 254 | 0.0 | 8.7 | 0.00 | 0.00 | 0.00 | 38 | 1010.2 |
| 20260509222510 | 62 | 248 | 0.0 | 8.7 | 0.00 | 0.00 | 0.00 | 37 | 1010.2 |
| 20260509222309 | 62 | 197 | 0.0 | 8.7 | 0.00 | 0.00 | 0.00 | 35 | 1010.2 |
| 20260509222205 | 62 | 250 | 0.0 | 8.7 | 0.00 | 0.00 | 0.00 | 36 | 1010.2 |
| 20260509222025 | 62 | 264 | 0.0 | 8.7 | 0.00 | 0.00 | 0.00 | 35 | 1010.1 |
| 20260509221908 | 62 | 255 | 0.0 | 8.7 | 0.00 | 0.00 | 0.00 | 36 | 1010.2 |
| 20260509221825 | 62 | 306 | 0.0 | 6.1 | 0.00 | 0.00 | 0.00 | 35 | 1010.1 |
| 20260509221804 | 62 | 141 | 0.0 | 8.7 | 0.00 | 0.00 | 0.00 | 35 | 1010.1 |
| 20260509221505 | 62 | 306 | 0.0 | 6.1 | 0.00 | 0.00 | 0.00 | 35 | 1010.1 |
| 20260509221301 | 63 | 162 | 0.0 | 6.1 | 0.00 | 0.00 | 0.00 | 37 | 1010.1 |
| 20260509221101 | 63 | 182 | 0.0 | 6.1 | 0.00 | 0.00 | 0.00 | 38 | 1010.0 |
| 20260509221004 | 63 | 289 | 0.0 | 6.1 | 0.00 | 0.00 | 0.00 | 37 | 1010.1 |
| 20260509220901 | 62 | 251 | 0.0 | 6.1 | 0.00 | 0.00 | 0.00 | 38 | 1010.1 |
| 20260509220803 | 62 | 217 | 0.0 | 6.1 | 0.00 | 0.00 | 0.00 | 39 | 1009.9 |
| 20260509220758 | 62 | 217 | 0.0 | 6.1 | 0.00 | 0.00 | 0.00 | 39 | 1009.9 |
| 20260509220743 | 62 | 41 | 0.0 | 6.1 | 0.00 | 0.00 | 0.00 | 38 | 1010.0 |
| 20260509220250 | 62 | 11 | 0.0 | 6.1 | 0.00 | 0.00 | 0.00 | 35 | 1009.9 |
| 20260509220050 | 62 | 0 | 0.0 | 6.1 | 0.00 | 0.00 | 0.00 | 34 | 1010.0 |
| 20260509220005 | 62 | 113 | 0.0 | 6.1 | 0.00 | 0.00 | 0.00 | 36 | 1009.9 |
| 20260509215850 | 63 | 305 | 0.0 | 4.3 | 0.00 | 0.00 | 0.00 | 36 | 1010.0 |
| 20260509215753 | 62 | 257 | 0.0 | 7.8 | 0.00 | 0.00 | 0.00 | 39 | 1010.1 |
| 20260509215739 | 62 | 199 | 0.0 | 4.3 | 0.00 | 0.00 | 0.00 | 39 | 1010.1 |
| 20260509215452 | 62 | 257 | 0.0 | 10.4 | 0.00 | 0.00 | 0.00 | 39 | 1010.1 |
| 20260509215252 | 62 | 314 | 0.0 | 10.4 | 0.00 | 0.00 | 0.00 | 36 | 1010.1 |
| 20260509215053 | 62 | 148 | 0.0 | 10.4 | 0.00 | 0.00 | 0.00 | 36 | 1010.2 |
| 20260509214959 | 62 | 251 | 0.0 | 10.4 | 0.00 | 0.00 | 0.00 | 37 | 1010.1 |
| 20260509214851 | 62 | 261 | 0.0 | 10.4 | 0.00 | 0.00 | 0.00 | 36 | 1010.1 |
| 20260509214654 | 62 | 56 | 0.0 | 10.4 | 0.00 | 0.00 | 0.00 | 34 | 1010.1 |
| 20260509214458 | 62 | 166 | 0.0 | 10.4 | 0.00 | 0.00 | 0.00 | 37 | 1010.0 |
| 20260509214452 | 62 | 213 | 0.0 | 7.8 | 0.00 | 0.00 | 0.00 | 37 | 1010.0 |
| 20260509214252 | 62 | 264 | 0.0 | 9.6 | 0.00 | 0.00 | 0.00 | 39 | 1010.0 |
| 20260509214152 | 62 | 59 | 0.0 | 9.6 | 0.00 | 0.00 | 0.00 | 34 | 1010.1 |
| 20260509213951 | 62 | 106 | 0.0 | 9.6 | 0.00 | 0.00 | 0.00 | 38 | 1010.1 |
| 20260509213851 | 62 | 147 | 0.0 | 9.6 | 0.00 | 0.00 | 0.00 | 36 | 1009.9 |
| 20260509213754 | 62 | 217 | 0.0 | 9.6 | 0.00 | 0.00 | 0.00 | 39 | 1009.9 |
| 20260509213739 | 62 | 186 | 0.0 | 9.6 | 0.00 | 0.00 | 0.00 | 35 | 1010.0 |
| 20260509213452 | 62 | 217 | 0.0 | 9.6 | 0.00 | 0.00 | 0.00 | 38 | 1009.9 |
| 20260509213251 | 62 | 320 | 0.0 | 6.1 | 0.00 | 0.00 | 0.00 | 36 | 1009.9 |
| 20260509213052 | 62 | 257 | 0.0 | 6.1 | 0.00 | 0.00 | 0.00 | 34 | 1009.9 |
| 20260509212952 | 62 | 44 | 0.0 | 6.1 | 0.00 | 0.00 | 0.00 | 36 | 1009.8 |
| 20260509212852 | 62 | 103 | 0.0 | 6.1 | 0.00 | 0.00 | 0.00 | 34 | 1009.9 |
| 20260509212747 | 61 | 13 | 0.0 | 6.1 | 0.00 | 0.00 | 0.00 | 35 | 1009.8 |
| 20260509212733 | 62 | 252 | 0.0 | 6.1 | 0.00 | 0.00 | 0.00 | 36 | 1010.0 |
| 20260509212253 | 61 | 76 | 0.0 | 6.1 | 0.00 | 0.00 | 0.00 | 37 | 1009.8 |
| 20260509212051 | 61 | 106 | 0.0 | 6.1 | 0.00 | 0.00 | 0.00 | 34 | 1009.8 |
| 20260509211955 | 62 | 31 | 0.0 | 6.1 | 0.00 | 0.00 | 0.00 | 34 | 1009.8 |
| 20260509211854 | 62 | 41 | 0.0 | 6.1 | 0.00 | 0.00 | 0.00 | 36 | 1009.8 |
| 20260509211800 | 62 | 42 | 0.0 | 6.1 | 0.00 | 0.00 | 0.00 | 39 | 1009.8 |
| 20260509211742 | 62 | 17 | 0.0 | 6.1 | 0.00 | 0.00 | 0.00 | 38 | 1009.8 |
| 20260509211706 | 62 | 42 | 0.0 | 6.1 | 0.00 | 0.00 | 0.00 | 39 | 1009.8 |
| 20260509211255 | 62 | 279 | 0.0 | 6.1 | 0.00 | 0.00 | 0.00 | 38 | 1009.9 |
| 20260509211054 | 62 | 47 | 0.0 | 6.1 | 0.00 | 0.00 | 0.00 | 35 | 1009.7 |
| 20260509210954 | 62 | 358 | 0.0 | 6.1 | 0.00 | 0.00 | 0.00 | 36 | 1009.8 |
| 20260509210852 | 62 | 209 | 0.0 | 6.1 | 0.00 | 0.00 | 0.00 | 37 | 1009.8 |
| 20260509210653 | 62 | 49 | 0.0 | 5.2 | 0.00 | 0.00 | 0.00 | 37 | 1009.8 |
| 20260509210455 | 62 | 348 | 0.0 | 5.2 | 0.00 | 0.00 | 0.00 | 37 | 1009.7 |
| 20260509210253 | 63 | 234 | 0.0 | 5.2 | 0.00 | 0.00 | 0.00 | 39 | 1009.7 |
| 20260509210053 | 62 | 39 | 0.0 | 5.2 | 0.00 | 0.00 | 0.00 | 40 | 1009.6 |
| 20260509205953 | 62 | 118 | 0.0 | 5.2 | 0.00 | 0.00 | 0.00 | 38 | 1009.7 |
| 20260509205853 | 62 | 59 | 0.0 | 5.2 | 0.00 | 0.00 | 0.00 | 38 | 1009.7 |
| 20260509205756 | 62 | 212 | 0.0 | 5.2 | 0.00 | 0.00 | 0.00 | 41 | 1009.7 |
| 20260509205740 | 62 | 4 | 0.0 | 5.2 | 0.00 | 0.00 | 0.00 | 37 | 1009.7 |
| 20260509205253 | 63 | 34 | 0.0 | 5.2 | 0.00 | 0.00 | 0.00 | 41 | 1009.7 |
| 20260509205053 | 62 | 261 | 0.0 | 5.2 | 0.00 | 0.00 | 0.00 | 40 | 1009.8 |
| 20260509204953 | 62 | 272 | 0.0 | 5.2 | 0.00 | 0.00 | 0.00 | 37 | 1009.6 |
| 20260509204853 | 62 | 49 | 0.0 | 5.2 | 0.00 | 0.00 | 0.00 | 41 | 1009.6 |
| 20260509204802 | 63 | 279 | 0.0 | 4.3 | 0.00 | 0.00 | 0.00 | 35 | 1009.7 |
| 20260509204745 | 62 | 210 | 0.0 | 5.2 | 0.00 | 0.00 | 0.00 | 37 | 1009.7 |
| 20260509204708 | 63 | 279 | 0.0 | 4.3 | 0.00 | 0.00 | 0.00 | 35 | 1009.7 |
| 20260509204254 | 62 | 56 | 0.0 | 4.3 | 0.00 | 0.00 | 0.00 | 40 | 1009.8 |
| 20260509204032 | 62 | 56 | 0.0 | 4.3 | 0.00 | 0.00 | 0.00 | 40 | 1009.6 |
| 20260509203955 | 62 | 56 | 0.0 | 4.3 | 0.00 | 0.00 | 0.00 | 40 | 1009.6 |
| 20260509203924 | 62 | 251 | 0.0 | 6.1 | 0.00 | 0.00 | 0.00 | 40 | 1009.7 |
| 20260509203745 | 62 | 41 | 0.0 | 7.8 | 0.00 | 0.00 | 0.00 | 40 | 1009.6 |
| 20260509203727 | 62 | 240 | 0.0 | 7.8 | 0.00 | 0.00 | 0.00 | 41 | 1009.6 |
| 20260509203425 | 62 | 41 | 0.0 | 7.8 | 0.00 | 0.00 | 0.00 | 40 | 1009.7 |
| 20260509203226 | 61 | 20 | 0.0 | 7.8 | 0.00 | 0.00 | 0.00 | 40 | 1009.6 |
| 20260509203020 | 61 | 10 | 0.0 | 7.8 | 0.00 | 0.00 | 0.00 | 39 | 1009.6 |
| 20260509202952 | 61 | 7 | 0.0 | 7.8 | 0.00 | 0.00 | 0.00 | 36 | 1009.6 |
| 20260509202815 | 62 | 38 | 0.0 | 7.8 | 0.00 | 0.00 | 0.00 | 39 | 1009.6 |
| 20260509202747 | 62 | 336 | 0.0 | 6.1 | 0.00 | 0.00 | 0.00 | 40 | 1009.6 |
| 20260509202725 | 62 | 28 | 0.0 | 6.1 | 0.00 | 0.00 | 0.00 | 38 | 1009.6 |
| 20260509202415 | 62 | 347 | 0.0 | 6.1 | 0.00 | 0.00 | 0.00 | 40 | 1009.6 |
| 20260509202214 | 61 | 0 | 0.0 | 5.2 | 0.00 | 0.00 | 0.00 | 38 | 1009.5 |
| 20260509202014 | 62 | 68 | 0.0 | 6.1 | 0.00 | 0.00 | 0.00 | 39 | 1009.6 |
| 20260509201952 | 62 | 18 | 0.0 | 6.1 | 0.00 | 0.00 | 0.00 | 39 | 1009.6 |
| 20260509201911 | 62 | 100 | 0.0 | 6.1 | 0.00 | 0.00 | 0.00 | 40 | 1009.6 |
| 20260509201750 | 62 | 344 | 0.0 | 6.1 | 0.00 | 0.00 | 0.00 | 43 | 1009.5 |
| 20260509201727 | 62 | 28 | 0.0 | 6.1 | 0.00 | 0.00 | 0.00 | 42 | 1009.6 |
| 20260509201412 | 61 | 235 | 0.0 | 6.1 | 0.00 | 0.00 | 0.00 | 38 | 1009.6 |
| 20260509201213 | 62 | 1 | 0.0 | 6.1 | 0.00 | 0.00 | 0.00 | 39 | 1009.4 |
| 20260509201011 | 62 | 37 | 0.0 | 6.1 | 0.00 | 0.00 | 0.00 | 38 | 1009.5 |
| 20260509200951 | 62 | 131 | 0.0 | 6.1 | 0.00 | 0.00 | 0.00 | 38 | 1009.5 |
| 20260509200813 | 62 | 250 | 0.0 | 7.8 | 0.00 | 0.00 | 0.00 | 40 | 1009.5 |
| 20260509200747 | 61 | 6 | 0.0 | 7.8 | 0.00 | 0.00 | 0.00 | 40 | 1009.6 |
| 20260509200726 | 62 | 42 | 0.0 | 7.8 | 0.00 | 0.00 | 0.00 | 37 | 1009.5 |
| 20260509200411 | 61 | 307 | 0.0 | 7.8 | 0.00 | 0.00 | 0.00 | 37 | 1009.5 |
| 20260509200308 | 62 | 13 | 0.0 | 7.8 | 0.00 | 0.00 | 0.00 | 36 | 1009.5 |
| 20260509200006 | 62 | 0 | 0.0 | 7.8 | 0.00 | 0.00 | 0.00 | 39 | 1009.5 |
| 20260509195951 | 62 | 14 | 0.0 | 7.8 | 0.00 | 0.00 | 0.00 | 41 | 1009.5 |
| 20260509195806 | 62 | 234 | 0.0 | 6.1 | 0.00 | 0.00 | 0.00 | 39 | 1009.3 |
| 20260509195747 | 62 | 248 | 0.0 | 6.1 | 0.00 | 0.00 | 0.00 | 38 | 1009.4 |
| 20260509195725 | 62 | 251 | 0.0 | 6.1 | 0.00 | 0.00 | 0.00 | 37 | 1009.4 |
| 20260509195407 | 62 | 271 | 0.0 | 6.1 | 0.00 | 0.00 | 0.00 | 38 | 1009.3 |
| 20260509195206 | 62 | 199 | 0.0 | 8.7 | 0.00 | 0.00 | 0.00 | 40 | 1009.4 |
| 20260509195005 | 62 | 255 | 0.0 | 8.7 | 0.00 | 0.00 | 0.00 | 39 | 1009.3 |
| 20260509194953 | 62 | 255 | 0.0 | 8.7 | 0.00 | 0.00 | 0.00 | 39 | 1009.3 |
| 20260509194806 | 62 | 340 | 0.0 | 8.7 | 0.00 | 0.00 | 0.00 | 37 | 1009.4 |
| 20260509194606 | 62 | 16 | 0.0 | 8.7 | 0.00 | 0.00 | 0.00 | 40 | 1009.3 |
| 20260509194451 | 62 | 25 | 0.0 | 8.7 | 0.00 | 0.00 | 0.00 | 41 | 1009.3 |
| 20260509194354 | 62 | 155 | 0.0 | 8.7 | 0.00 | 0.00 | 0.00 | 40 | 1009.3 |
| 20260509194254 | 62 | 145 | 0.0 | 11.3 | 0.00 | 0.00 | 0.00 | 38 | 1009.2 |
| 20260509193951 | 62 | 166 | 0.0 | 11.3 | 0.00 | 0.00 | 0.00 | 38 | 1009.3 |
| 20260509193753 | 61 | 96 | 0.0 | 11.3 | 0.00 | 0.00 | 0.00 | 39 | 1009.4 |
| 20260509193745 | 60 | 185 | 0.0 | 11.3 | 0.00 | 0.00 | 0.00 | 37 | 1009.2 |
| 20260509193721 | 61 | 226 | 0.0 | 11.3 | 0.00 | 0.00 | 0.00 | 37 | 1009.3 |
| 20260509193355 | 61 | 262 | 0.0 | 11.3 | 0.00 | 0.00 | 0.00 | 37 | 1009.2 |
| 20260509193152 | 62 | 313 | 0.0 | 8.7 | 0.00 | 0.00 | 0.00 | 41 | 1009.3 |
| 20260509192954 | 62 | 202 | 0.0 | 7.8 | 0.00 | 0.00 | 0.00 | 42 | 1009.2 |
| 20260509192827 | 61 | 254 | 0.0 | 7.8 | 0.00 | 0.00 | 0.00 | 44 | 1009.1 |
| 20260509192759 | 61 | 18 | 0.0 | 7.8 | 0.00 | 0.00 | 0.00 | 44 | 1009.1 |
| 20260509192753 | 62 | 166 | 0.0 | 5.2 | 0.00 | 0.00 | 0.00 | 41 | 1009.1 |
| 20260509192353 | 61 | 41 | 0.0 | 7.8 | 0.00 | 0.00 | 0.00 | 42 | 1009.1 |
| 20260509192153 | 61 | 58 | 0.0 | 7.8 | 0.00 | 0.00 | 0.00 | 43 | 1009.2 |
| 20260509191954 | 61 | 30 | 0.0 | 7.8 | 0.00 | 0.00 | 0.00 | 41 | 1009.2 |
| 20260509191755 | 61 | 158 | 0.0 | 7.8 | 0.00 | 0.00 | 0.00 | 41 | 1009.2 |
| 20260509191747 | 62 | 282 | 0.0 | 7.8 | 0.00 | 0.00 | 0.00 | 42 | 1009.3 |
| 20260509191724 | 61 | 221 | 0.0 | 7.8 | 0.00 | 0.00 | 0.00 | 38 | 1009.2 |
| 20260509191355 | 61 | 17 | 0.0 | 7.8 | 0.00 | 0.00 | 0.00 | 40 | 1009.2 |
| 20260509191154 | 61 | 17 | 0.0 | 7.8 | 0.00 | 0.00 | 0.00 | 40 | 1009.1 |
| 20260509191056 | 61 | 344 | 0.0 | 7.8 | 0.00 | 0.00 | 0.00 | 38 | 1009.2 |
| 20260509190956 | 61 | 344 | 0.0 | 7.8 | 0.00 | 0.00 | 0.00 | 38 | 1009.2 |
| 20260509190753 | 61 | 32 | 0.0 | 6.1 | 0.00 | 0.00 | 0.00 | 44 | 1009.2 |
| 20260509190554 | 61 | 282 | 0.0 | 6.1 | 0.00 | 0.00 | 0.00 | 40 | 1009.2 |
| 20260509190435 | 61 | 165 | 0.0 | 6.1 | 0.00 | 0.00 | 0.00 | 39 | 1009.1 |
| 20260509190353 | 61 | 199 | 0.0 | 6.1 | 0.00 | 0.00 | 0.00 | 39 | 1009.1 |
| 20260509190254 | 61 | 238 | 0.0 | 6.1 | 0.00 | 0.00 | 0.00 | 38 | 1009.2 |
| 20260509185953 | 62 | 157 | 0.0 | 6.1 | 0.00 | 0.00 | 0.00 | 40 | 1009.0 |
| 20260509185934 | 62 | 351 | 0.0 | 6.1 | 0.00 | 0.00 | 0.00 | 40 | 1009.0 |
| 20260509185752 | 62 | 25 | 0.0 | 6.1 | 0.00 | 0.00 | 0.00 | 42 | 1009.1 |
| 20260509185732 | 61 | 73 | 0.0 | 6.1 | 0.00 | 0.00 | 0.00 | 39 | 1008.9 |
| 20260509185711 | 62 | 34 | 0.0 | 6.1 | 0.00 | 0.00 | 0.00 | 41 | 1009.0 |
| 20260509185355 | 61 | 73 | 0.0 | 6.1 | 0.00 | 0.00 | 0.00 | 39 | 1008.9 |
| 20260509185153 | 61 | 123 | 0.0 | 6.1 | 0.00 | 0.00 | 0.00 | 39 | 1009.0 |
| 20260509184954 | 61 | 38 | 0.0 | 6.1 | 0.00 | 0.00 | 0.00 | 40 | 1009.1 |
| 20260509184933 | 61 | 317 | 0.0 | 6.1 | 0.00 | 0.00 | 0.00 | 40 | 1009.0 |
| 20260509184806 | 61 | 199 | 0.0 | 5.2 | 0.00 | 0.00 | 0.00 | 38 | 1009.0 |
| 20260509184753 | 61 | 289 | 0.0 | 6.1 | 0.00 | 0.00 | 0.00 | 41 | 1008.9 |
| 20260509184725 | 61 | 243 | 0.0 | 6.1 | 0.00 | 0.00 | 0.00 | 43 | 1008.9 |
| 20260509184353 | 61 | 243 | 0.0 | 6.1 | 0.00 | 0.00 | 0.00 | 41 | 1008.9 |
| 20260509184154 | 61 | 292 | 0.0 | 6.1 | 0.00 | 0.00 | 0.00 | 38 | 1008.9 |
| 20260509183953 | 61 | 11 | 0.0 | 6.1 | 0.00 | 0.00 | 0.00 | 43 | 1008.7 |
| 20260509183931 | 61 | 10 | 0.0 | 6.1 | 0.00 | 0.00 | 0.00 | 43 | 1008.7 |
| 20260509183754 | 61 | 300 | 0.0 | 6.1 | 0.00 | 0.00 | 0.00 | 46 | 1008.8 |
| 20260509183731 | 60 | 109 | 0.0 | 6.1 | 0.00 | 0.00 | 0.00 | 44 | 1008.7 |
| 20260509183711 | 60 | 63 | 0.0 | 6.1 | 0.00 | 0.00 | 0.00 | 42 | 1008.7 |
| 20260509183354 | 60 | 4 | 0.0 | 6.1 | 0.00 | 0.00 | 0.00 | 44 | 1008.7 |
| 20260509183153 | 61 | 190 | 0.0 | 6.1 | 0.00 | 0.00 | 0.00 | 39 | 1008.9 |
| 20260509183052 | 62 | 214 | 0.0 | 5.2 | 0.00 | 0.00 | 0.00 | 43 | 1008.7 |
| 20260509182931 | 62 | 257 | 0.0 | 5.2 | 0.00 | 0.00 | 0.00 | 44 | 1008.7 |
| 20260509182753 | 62 | 248 | 0.0 | 3.5 | 0.00 | 0.00 | 0.00 | 42 | 1008.7 |
| 20260509182552 | 62 | 138 | 0.0 | 3.5 | 0.00 | 0.00 | 0.00 | 45 | 1008.8 |
| 20260509182431 | 61 | 196 | 0.0 | 8.7 | 0.00 | 0.00 | 0.00 | 43 | 1008.7 |
| 20260509182353 | 61 | 199 | 0.0 | 8.7 | 0.00 | 0.00 | 0.00 | 43 | 1008.7 |
| 20260509182152 | 61 | 240 | 0.0 | 8.7 | 0.00 | 0.00 | 0.00 | 43 | 1008.7 |
| 20260509182054 | 61 | 32 | 0.0 | 8.7 | 0.00 | 0.00 | 0.00 | 45 | 1008.7 |
| 20260509181931 | 61 | 30 | 0.0 | 8.7 | 0.00 | 0.00 | 0.00 | 45 | 1008.7 |
| 20260509181754 | 60 | 4 | 0.0 | 8.7 | 0.00 | 0.00 | 0.00 | 43 | 1008.7 |
| 20260509181554 | 60 | 4 | 0.0 | 8.7 | 0.00 | 0.00 | 0.00 | 43 | 1008.7 |
| 20260509181432 | 60 | 16 | 0.0 | 7.8 | 0.00 | 0.00 | 0.00 | 43 | 1008.7 |
| 20260509181353 | 60 | 37 | 0.0 | 7.8 | 0.00 | 0.00 | 0.00 | 42 | 1008.7 |
| 20260509181154 | 60 | 0 | 0.0 | 7.8 | 0.00 | 0.00 | 0.00 | 43 | 1008.7 |
| 20260509180958 | 61 | 244 | 0.0 | 7.8 | 0.00 | 0.00 | 0.00 | 42 | 1008.7 |
| 20260509180931 | 61 | 244 | 0.0 | 7.8 | 0.00 | 0.00 | 0.00 | 42 | 1008.5 |
| 20260509180753 | 61 | 214 | 0.0 | 7.8 | 0.00 | 0.00 | 0.00 | 42 | 1008.6 |
| 20260509180552 | 61 | 0 | 0.0 | 4.3 | 0.00 | 0.00 | 0.00 | 45 | 1008.5 |
| 20260509180453 | 61 | 276 | 0.0 | 6.1 | 0.00 | 0.00 | 0.00 | 44 | 1008.5 |
| 20260509180411 | 61 | 276 | 0.0 | 6.1 | 0.00 | 0.00 | 0.00 | 47 | 1008.5 |
| 20260509180151 | 61 | 0 | 0.0 | 6.1 | 0.00 | 0.00 | 0.00 | 46 | 1008.6 |
| 20260509175951 | 60 | 344 | 0.0 | 6.1 | 0.00 | 0.00 | 0.00 | 46 | 1008.4 |
| 20260509175913 | 60 | 44 | 0.0 | 6.1 | 0.00 | 0.00 | 0.00 | 46 | 1008.6 |
| 20260509175753 | 60 | 245 | 0.0 | 6.1 | 0.00 | 0.00 | 0.00 | 43 | 1008.5 |
| 20260509175551 | 60 | 348 | 0.0 | 6.1 | 0.00 | 0.00 | 0.00 | 44 | 1008.6 |
| 20260509175411 | 60 | 0 | 0.0 | 7.8 | 0.00 | 0.00 | 0.00 | 48 | 1008.4 |
| 20260509175352 | 60 | 30 | 0.0 | 7.8 | 0.00 | 0.00 | 0.00 | 48 | 1008.4 |
| 20260509175148 | 60 | 182 | 0.0 | 7.8 | 0.00 | 0.00 | 0.00 | 45 | 1008.5 |
| 20260509174949 | 60 | 259 | 0.0 | 7.8 | 0.00 | 0.00 | 0.00 | 44 | 1008.5 |
| 20260509174913 | 60 | 195 | 0.0 | 7.8 | 0.00 | 0.00 | 0.00 | 47 | 1008.5 |
| 20260509174850 | 60 | 302 | 0.0 | 7.8 | 0.00 | 0.00 | 0.00 | 44 | 1008.5 |
| 20260509174548 | 60 | 237 | 0.0 | 7.8 | 0.00 | 0.00 | 0.00 | 41 | 1008.5 |
| 20260509174406 | 60 | 219 | 0.0 | 7.8 | 0.00 | 0.00 | 0.00 | 43 | 1008.4 |
| 20260509174344 | 60 | 305 | 0.0 | 7.8 | 0.00 | 0.00 | 0.00 | 43 | 1008.4 |
| 20260509174210 | 60 | 1 | 0.0 | 8.7 | 0.00 | 0.00 | 0.00 | 43 | 1008.4 |
| 20260509174159 | 60 | 0 | 0.0 | 7.8 | 0.00 | 0.00 | 0.00 | 46 | 1008.3 |
| 20260509174131 | 59 | 355 | 0.0 | 7.8 | 0.00 | 0.00 | 0.00 | 43 | 1008.4 |
| 20260509173843 | 60 | 111 | 0.0 | 8.7 | 0.00 | 0.00 | 0.00 | 45 | 1008.3 |
| 20260509173543 | 60 | 16 | 0.0 | 8.7 | 0.00 | 0.00 | 0.00 | 45 | 1008.3 |
| 20260509173407 | 60 | 0 | 0.0 | 8.7 | 0.00 | 0.00 | 0.00 | 47 | 1008.4 |
| 20260509173344 | 60 | 1 | 0.0 | 8.7 | 0.00 | 0.00 | 0.00 | 45 | 1008.3 |
| 20260509173138 | 60 | 58 | 0.0 | 8.7 | 0.00 | 0.00 | 0.00 | 46 | 1008.3 |
| 20260509172936 | 59 | 172 | 0.0 | 8.7 | 0.00 | 0.00 | 0.00 | 45 | 1008.4 |
| 20260509172908 | 59 | 76 | 0.0 | 7.8 | 0.00 | 0.00 | 0.00 | 45 | 1008.4 |
| 20260509172736 | 60 | 137 | 0.0 | 7.8 | 0.00 | 0.00 | 0.00 | 44 | 1008.2 |
| 20260509172536 | 60 | 347 | 0.0 | 6.1 | 0.00 | 0.00 | 0.00 | 44 | 1008.3 |
| 20260509172403 | 60 | 21 | 0.0 | 6.1 | 0.00 | 0.00 | 0.00 | 44 | 1008.3 |
| 20260509172336 | 60 | 7 | 0.0 | 6.1 | 0.00 | 0.00 | 0.00 | 44 | 1008.3 |
| 20260509172234 | 60 | 347 | 0.0 | 6.1 | 0.00 | 0.00 | 0.00 | 45 | 1008.4 |
| 20260509171933 | 61 | 0 | 0.0 | 6.1 | 0.00 | 0.00 | 0.00 | 44 | 1008.3 |
| 20260509171903 | 61 | 24 | 0.0 | 6.1 | 0.00 | 0.00 | 0.00 | 48 | 1008.3 |
| 20260509171733 | 60 | 250 | 0.0 | 6.1 | 0.00 | 0.00 | 0.00 | 46 | 1008.2 |
| 20260509171533 | 60 | 307 | 0.0 | 6.1 | 0.00 | 0.00 | 0.00 | 45 | 1008.2 |
| 20260509171404 | 60 | 206 | 0.0 | 6.1 | 0.00 | 0.00 | 0.00 | 45 | 1008.2 |
| 20260509171333 | 60 | 216 | 0.0 | 6.1 | 0.00 | 0.00 | 0.00 | 46 | 1008.2 |
| 20260509171132 | 60 | 21 | 0.0 | 7.8 | 0.00 | 0.00 | 0.00 | 44 | 1008.1 |
| 20260509170931 | 60 | 248 | 0.0 | 7.8 | 0.00 | 0.00 | 0.00 | 45 | 1008.1 |
| 20260509170903 | 60 | 247 | 0.0 | 7.8 | 0.00 | 0.00 | 0.00 | 45 | 1008.1 |
| 20260509170730 | 60 | 255 | 0.0 | 10.4 | 0.00 | 0.00 | 0.00 | 45 | 1008.2 |
| 20260509170530 | 60 | 261 | 0.0 | 10.4 | 0.00 | 0.00 | 0.00 | 46 | 1008.1 |
| 20260509170401 | 60 | 247 | 0.0 | 10.4 | 0.00 | 0.00 | 0.00 | 45 | 1008.1 |
| 20260509170330 | 60 | 247 | 0.0 | 10.4 | 0.00 | 0.00 | 0.00 | 45 | 1008.1 |
| 20260509170130 | 60 | 264 | 0.0 | 10.4 | 0.00 | 0.00 | 0.00 | 49 | 1008.2 |
| 20260509165930 | 59 | 220 | 0.0 | 10.4 | 0.00 | 0.00 | 0.00 | 46 | 1008.3 |
| 20260509165859 | 59 | 235 | 0.0 | 10.4 | 0.00 | 0.00 | 0.00 | 46 | 1008.3 |
| 20260509165830 | 59 | 244 | 0.0 | 10.4 | 0.00 | 0.00 | 0.00 | 42 | 1008.3 |
| 20260509165529 | 60 | 309 | 0.0 | 10.4 | 0.00 | 0.00 | 0.00 | 48 | 1008.2 |
| 20260509165358 | 59 | 247 | 0.0 | 7.8 | 0.00 | 0.00 | 0.00 | 48 | 1008.2 |
| 20260509165329 | 59 | 231 | 0.0 | 7.8 | 0.00 | 0.00 | 0.00 | 45 | 1008.1 |
| 20260509165128 | 60 | 0 | 0.0 | 7.8 | 0.00 | 0.00 | 0.00 | 43 | 1008.1 |
| 20260509164929 | 60 | 13 | 0.0 | 7.8 | 0.00 | 0.00 | 0.00 | 47 | 1008.2 |
| 20260509164903 | 60 | 34 | 0.0 | 7.8 | 0.00 | 0.00 | 0.00 | 47 | 1008.2 |
| 20260509164728 | 60 | 38 | 0.0 | 6.1 | 0.00 | 0.00 | 0.00 | 47 | 1008.1 |
| 20260509164527 | 59 | 0 | 0.0 | 8.7 | 0.00 | 0.00 | 0.00 | 47 | 1008.1 |
| 20260509164358 | 59 | 235 | 0.0 | 9.6 | 0.00 | 0.00 | 0.00 | 44 | 1008.0 |
| 20260509164326 | 59 | 231 | 0.0 | 9.6 | 0.00 | 0.00 | 0.00 | 46 | 1008.1 |
| 20260509164222 | 59 | 213 | 0.0 | 9.6 | 0.00 | 0.00 | 0.00 | 46 | 1008.0 |
| 20260509163922 | 59 | 333 | 0.0 | 9.6 | 0.00 | 0.00 | 0.00 | 44 | 1008.1 |
| 20260509163856 | 59 | 357 | 0.0 | 9.6 | 0.00 | 0.00 | 0.00 | 48 | 1008.1 |
| 20260509163723 | 59 | 58 | 0.0 | 9.6 | 0.00 | 0.00 | 0.00 | 45 | 1008.2 |
| 20260509163523 | 59 | 244 | 0.0 | 9.6 | 0.00 | 0.00 | 0.00 | 45 | 1008.3 |
| 20260509163355 | 59 | 116 | 0.0 | 8.7 | 0.00 | 0.00 | 0.00 | 45 | 1007.9 |
| 20260509163319 | 59 | 254 | 0.0 | 8.7 | 0.00 | 0.00 | 0.00 | 46 | 1008.0 |
| 20260509163119 | 59 | 252 | 0.0 | 8.7 | 0.00 | 0.00 | 0.00 | 47 | 1007.9 |
| 20260509162920 | 59 | 272 | 0.0 | 7.8 | 0.00 | 0.00 | 0.00 | 44 | 1007.9 |
| 20260509162855 | 59 | 298 | 0.0 | 7.8 | 0.00 | 0.00 | 0.00 | 43 | 1007.9 |
| 20260509162717 | 59 | 195 | 0.0 | 7.8 | 0.00 | 0.00 | 0.00 | 46 | 1007.8 |
| 20260509162518 | 59 | 238 | 0.0 | 7.8 | 0.00 | 0.00 | 0.00 | 53 | 1007.9 |
| 20260509162353 | 59 | 245 | 0.0 | 7.8 | 0.00 | 0.00 | 0.00 | 45 | 1007.8 |
| 20260509162319 | 59 | 295 | 0.0 | 7.8 | 0.00 | 0.00 | 0.00 | 45 | 1007.8 |
| 20260509162200 | 60 | 248 | 0.0 | 7.8 | 0.00 | 0.00 | 0.00 | 47 | 1007.8 |
| 20260509162149 | 60 | 216 | 0.0 | 7.8 | 0.00 | 0.00 | 0.00 | 47 | 1007.8 |
| 20260509162120 | 60 | 255 | 0.0 | 7.8 | 0.00 | 0.00 | 0.00 | 46 | 1007.8 |
| 20260509161716 | 60 | 217 | 0.0 | 7.8 | 0.00 | 0.00 | 0.00 | 46 | 1007.6 |
| 20260509161614 | 59 | 44 | 0.0 | 6.1 | 0.00 | 0.00 | 0.00 | 47 | 1007.6 |
| 20260509161354 | 59 | 271 | 0.0 | 6.1 | 0.00 | 0.00 | 0.00 | 45 | 1007.5 |
| 20260509161309 | 59 | 96 | 0.0 | 6.1 | 0.00 | 0.00 | 0.00 | 48 | 1007.6 |
| 20260509161156 | 59 | 338 | 0.0 | 7.8 | 0.00 | 0.00 | 0.00 | 46 | 1007.6 |
| 20260509161141 | 59 | 145 | 0.0 | 7.8 | 0.00 | 0.00 | 0.00 | 45 | 1007.6 |
| 20260509161112 | 59 | 334 | 0.0 | 7.8 | 0.00 | 0.00 | 0.00 | 46 | 1007.6 |
| 20260509160707 | 59 | 121 | 0.0 | 7.8 | 0.00 | 0.00 | 0.00 | 47 | 1007.6 |
| 20260509160505 | 60 | 89 | 0.0 | 9.6 | 0.00 | 0.00 | 0.00 | 47 | 1007.5 |
| 20260509160352 | 60 | 320 | 0.0 | 9.6 | 0.00 | 0.00 | 0.00 | 46 | 1007.5 |
| 20260509160305 | 60 | 303 | 0.0 | 9.6 | 0.00 | 0.00 | 0.00 | 45 | 1007.5 |
| 20260509160211 | 59 | 258 | 0.0 | 9.6 | 0.00 | 0.00 | 0.00 | 53 | 1007.5 |
| 20260509160153 | 59 | 258 | 0.0 | 9.6 | 0.00 | 0.00 | 0.00 | 53 | 1007.5 |
| 20260509160139 | 60 | 299 | 0.0 | 9.6 | 0.00 | 0.00 | 0.00 | 49 | 1007.5 |
| 20260509155703 | 59 | 261 | 0.0 | 9.6 | 0.00 | 0.00 | 0.00 | 50 | 1007.5 |
| 20260509155508 | 59 | 255 | 0.0 | 5.2 | 0.00 | 0.00 | 0.00 | 47 | 1007.5 |
| 20260509155354 | 59 | 255 | 0.0 | 5.2 | 0.00 | 0.00 | 0.00 | 47 | 1007.4 |
| 20260509155307 | 59 | 255 | 0.0 | 5.2 | 0.00 | 0.00 | 0.00 | 47 | 1007.5 |
| 20260509155143 | 59 | 31 | 0.0 | 5.2 | 0.00 | 0.00 | 0.00 | 48 | 1007.3 |
| 20260509155129 | 59 | 68 | 0.0 | 5.2 | 0.00 | 0.00 | 0.00 | 49 | 1007.5 |
| 20260509155101 | 59 | 31 | 0.0 | 5.2 | 0.00 | 0.00 | 0.00 | 48 | 1007.4 |
| 20260509154651 | 58 | 209 | 0.0 | 5.2 | 0.00 | 0.00 | 0.00 | 47 | 1007.4 |
| 20260509154451 | 58 | 261 | 0.0 | 5.2 | 0.00 | 0.00 | 0.00 | 51 | 1007.4 |
| 20260509154334 | 58 | 66 | 0.0 | 5.2 | 0.00 | 0.00 | 0.00 | 50 | 1007.4 |
| 20260509154254 | 58 | 79 | 0.0 | 5.2 | 0.00 | 0.00 | 0.00 | 51 | 1007.4 |
| 20260509154034 | 58 | 35 | 0.0 | 5.2 | 0.00 | 0.00 | 0.00 | 49 | 1007.4 |
| 20260509153939 | 58 | 189 | 0.0 | 5.2 | 0.00 | 0.00 | 0.00 | 49 | 1007.3 |
| 20260509153836 | 58 | 189 | 0.0 | 5.2 | 0.00 | 0.00 | 0.00 | 49 | 1007.3 |
| 20260509153634 | 58 | 286 | 0.0 | 5.2 | 0.00 | 0.00 | 0.00 | 51 | 1007.3 |
| 20260509153433 | 57 | 261 | 0.0 | 7.8 | 0.00 | 0.00 | 0.00 | 51 | 1007.3 |
| 20260509153334 | 58 | 233 | 0.0 | 7.8 | 0.00 | 0.00 | 0.00 | 50 | 1007.3 |
| 20260509153234 | 58 | 193 | 0.0 | 7.8 | 0.00 | 0.00 | 0.00 | 50 | 1007.3 |
| 20260509153033 | 58 | 274 | 0.0 | 7.8 | 0.00 | 0.00 | 0.00 | 50 | 1007.2 |
| 20260509152834 | 58 | 313 | 0.0 | 7.8 | 0.00 | 0.00 | 0.00 | 52 | 1007.3 |
| 20260509152631 | 58 | 261 | 0.0 | 5.2 | 0.00 | 0.00 | 0.00 | 55 | 1007.2 |
| 20260509152430 | 58 | 54 | 0.0 | 5.2 | 0.00 | 0.00 | 0.00 | 54 | 1007.2 |
| 20260509152333 | 58 | 266 | 0.0 | 5.2 | 0.00 | 0.00 | 0.00 | 56 | 1007.2 |
| 20260509152328 | 57 | 251 | 0.0 | 5.2 | 0.00 | 0.00 | 0.00 | 56 | 1007.2 |
| 20260509152125 | 0 | 0.0 | 0.0 | 0.00 | 0.00 | 0.00 | 1007.2 | ||
| 20260509152114 | 57 | 248 | 0.0 | 2.6 | 0.00 | 0.00 | 0.00 | 55 | 1007.1 |
| 20260509152051 | 0 | 0.0 | 0.0 | 0.00 | 0.00 | 0.00 | 1007.2 | ||
| 20260509151328 | 57 | 110 | 0.0 | 6.1 | 0.00 | 0.00 | 0.00 | 56 | 1007.0 |
| 20260509151226 | 57 | 48 | 0.0 | 6.1 | 0.00 | 0.00 | 0.00 | 56 | 1007.0 |
| 20260509151127 | 57 | 66 | 0.0 | 6.1 | 0.00 | 0.00 | 0.00 | 55 | 1007.1 |
| 20260509151028 | 58 | 217 | 0.0 | 7.8 | 0.00 | 0.00 | 0.00 | 57 | 1007.0 |
| 20260509150727 | 57 | 111 | 0.0 | 7.8 | 0.00 | 0.00 | 0.00 | 59 | 1007.0 |
| 20260509150527 | 56 | 113 | 0.0 | 7.8 | 0.00 | 0.00 | 0.00 | 58 | 1006.9 |
| 20260509150327 | 56 | 169 | 0.0 | 7.8 | 0.00 | 0.00 | 0.00 | 54 | 1006.9 |
| 20260509150226 | 56 | 250 | 0.0 | 7.8 | 0.00 | 0.00 | 0.00 | 53 | 1006.9 |
| 20260509150127 | 56 | 49 | 0.0 | 7.8 | 0.00 | 0.00 | 0.00 | 53 | 1006.9 |
| 20260509150021 | 57 | 0 | 0.0 | 7.8 | 0.00 | 0.00 | 0.00 | 60 | 1006.9 |
| 20260509150007 | 57 | 61 | 0.0 | 7.8 | 0.00 | 0.00 | 0.00 | 57 | 1007.0 |
| 20260509145528 | 57 | 89 | 0.0 | 7.8 | 0.00 | 0.00 | 0.00 | 60 | 1006.8 |
| 20260509145327 | 57 | 131 | 0.0 | 7.8 | 0.00 | 0.00 | 0.00 | 59 | 1006.8 |
| 20260509145226 | 57 | 285 | 0.0 | 7.8 | 0.00 | 0.00 | 0.00 | 60 | 1006.8 |
| 20260509145127 | 57 | 68 | 0.0 | 5.2 | 0.00 | 0.00 | 0.00 | 59 | 1006.8 |
| 20260509144927 | 57 | 202 | 0.0 | 5.2 | 0.00 | 0.00 | 0.00 | 63 | 1006.7 |
| 20260509144727 | 57 | 24 | 0.0 | 4.3 | 0.00 | 0.00 | 0.00 | 62 | 1006.7 |
| 20260509144527 | 56 | 7 | 0.0 | 9.6 | 0.00 | 0.00 | 0.00 | 61 | 1006.7 |
| 20260509144327 | 56 | 16 | 0.0 | 9.6 | 0.00 | 0.00 | 0.00 | 61 | 1006.8 |
| 20260509144238 | 56 | 34 | 0.0 | 9.6 | 0.00 | 0.00 | 0.00 | 62 | 1006.7 |
| 20260509144228 | 56 | 11 | 0.0 | 9.6 | 0.00 | 0.00 | 0.00 | 62 | 1006.7 |
| 20260509143927 | 56 | 49 | 0.0 | 9.6 | 0.00 | 0.00 | 0.00 | 61 | 1006.6 |
| 20260509143727 | 56 | 0 | 0.0 | 9.6 | 0.00 | 0.00 | 0.00 | 59 | 1006.6 |
| 20260509143527 | 57 | 148 | 0.0 | 7.8 | 0.00 | 0.00 | 0.00 | 63 | 1006.6 |
| 20260509143327 | 56 | 0 | 0.0 | 7.8 | 0.00 | 0.00 | 0.00 | 63 | 1006.6 |
| 20260509143225 | 56 | 0 | 0.0 | 5.2 | 0.00 | 0.00 | 0.00 | 63 | 1006.6 |
| 20260509143128 | 56 | 271 | 0.0 | 6.1 | 0.00 | 0.00 | 0.00 | 63 | 1006.6 |
| 20260509142927 | 56 | 302 | 0.0 | 8.7 | 0.00 | 0.00 | 0.00 | 65 | 1006.5 |
| 20260509142728 | 56 | 0 | 0.0 | 8.7 | 0.00 | 0.00 | 0.00 | 65 | 1006.5 |
| 20260509142527 | 56 | 0 | 0.0 | 8.7 | 0.00 | 0.00 | 0.00 | 66 | 1006.4 |
| 20260509142327 | 56 | 258 | 0.0 | 8.7 | 0.00 | 0.00 | 0.00 | 64 | 1006.4 |
| 20260509142227 | 56 | 351 | 0.0 | 8.7 | 0.00 | 0.00 | 0.00 | 65 | 1006.4 |
| 20260509142127 | 56 | 278 | 0.0 | 8.7 | 0.00 | 0.00 | 0.00 | 65 | 1006.4 |
| 20260509142030 | 55 | 80 | 0.0 | 5.2 | 0.00 | 0.00 | 0.00 | 67 | 1006.4 |
| 20260509142012 | 56 | 250 | 0.0 | 5.2 | 0.00 | 0.00 | 0.00 | 67 | 1006.4 |
| 20260509141941 | 55 | 80 | 0.0 | 5.2 | 0.00 | 0.00 | 0.00 | 67 | 1006.4 |
| 20260509141529 | 55 | 16 | 0.0 | 5.2 | 0.00 | 0.00 | 0.00 | 68 | 1006.3 |
| 20260509141329 | 55 | 331 | 0.0 | 4.3 | 0.00 | 0.00 | 0.00 | 71 | 1006.2 |
| 20260509141236 | 54 | 41 | 0.0 | 4.3 | 0.00 | 0.00 | 0.00 | 70 | 1006.2 |
| 20260509141225 | 54 | 1 | 0.0 | 4.3 | 0.00 | 0.00 | 0.00 | 72 | 1006.2 |
| 20260509140927 | 54 | 62 | 0.0 | 4.3 | 0.00 | 0.00 | 0.00 | 70 | 1006.1 |
| 20260509140727 | 53 | 73 | 0.0 | 6.1 | 0.00 | 0.00 | 0.00 | 70 | 1006.1 |
| 20260509140526 | 53 | 41 | 0.0 | 6.1 | 0.00 | 0.00 | 0.00 | 70 | 1006.1 |
| 20260509140327 | 53 | 109 | 0.0 | 6.1 | 0.00 | 0.00 | 0.00 | 68 | 1006.1 |
| 20260509140227 | 54 | 250 | 0.0 | 6.1 | 0.00 | 0.00 | 0.00 | 68 | 1006.1 |
| 20260509140127 | 54 | 120 | 0.0 | 6.1 | 0.00 | 0.00 | 0.00 | 68 | 1006.0 |
| 20260509135927 | 54 | 61 | 0.0 | 6.1 | 0.00 | 0.00 | 0.00 | 68 | 1006.0 |
| 20260509135728 | 54 | 6 | 0.0 | 6.1 | 0.00 | 0.00 | 0.00 | 69 | 1005.9 |
| 20260509135626 | 54 | 0 | 0.0 | 6.1 | 0.00 | 0.00 | 0.00 | 68 | 1005.8 |
| 20260509135328 | 55 | 333 | 0.0 | 6.1 | 0.00 | 0.00 | 0.00 | 68 | 1005.9 |
| 20260509135226 | 55 | 333 | 0.0 | 6.1 | 0.00 | 0.00 | 0.00 | 67 | 1005.8 |
| 20260509135127 | 55 | 0 | 0.0 | 6.1 | 0.00 | 0.00 | 0.00 | 66 | 1005.9 |
| 20260509134926 | 55 | 357 | 0.0 | 6.1 | 0.00 | 0.00 | 0.00 | 66 | 1005.8 |
| 20260509134728 | 56 | 344 | 0.0 | 4.3 | 0.00 | 0.00 | 0.00 | 68 | 1005.8 |
| 20260509134527 | 56 | 24 | 0.0 | 3.5 | 0.00 | 0.00 | 0.00 | 68 | 1005.7 |
| 20260509134329 | 57 | 21 | 0.0 | 2.6 | 0.00 | 0.00 | 0.00 | 67 | 1005.6 |
| 20260509134228 | 57 | 21 | 0.0 | 2.6 | 0.00 | 0.00 | 0.00 | 67 | 1005.7 |
| 20260509134127 | 57 | 351 | 0.0 | 2.6 | 0.00 | 0.00 | 0.00 | 67 | 1005.7 |
| 20260509133929 | 57 | 25 | 0.0 | 2.6 | 0.00 | 0.00 | 0.00 | 70 | 1005.6 |
| 20260509133730 | 57 | 32 | 0.0 | 3.5 | 0.00 | 0.00 | 0.00 | 69 | 1005.6 |
| 20260509133702 | 57 | 48 | 0.0 | 3.5 | 0.00 | 0.00 | 0.00 | 69 | 1005.6 |
| 20260509133627 | 56 | 0 | 0.0 | 3.5 | 0.00 | 0.00 | 0.00 | 70 | 1005.5 |
| 20260509133455 | 56 | 80 | 0.0 | 3.5 | 0.00 | 0.00 | 0.00 | 72 | 1005.5 |
| 20260509133437 | 56 | 69 | 0.0 | 3.5 | 0.00 | 0.00 | 0.00 | 71 | 1005.6 |
| 20260509133126 | 56 | 82 | 0.0 | 3.5 | 0.00 | 0.00 | 0.00 | 72 | 1005.5 |
| 20260509132926 | 55 | 23 | 0.0 | 4.3 | 0.00 | 0.00 | 0.00 | 73 | 1005.5 |
| 20260509132728 | 55 | 175 | 0.0 | 4.3 | 0.00 | 0.00 | 0.00 | 73 | 1005.5 |
| 20260509132701 | 55 | 120 | 0.0 | 5.2 | 0.00 | 0.00 | 0.00 | 73 | 1005.5 |
| 20260509132527 | 55 | 51 | 0.0 | 6.1 | 0.00 | 0.00 | 0.00 | 72 | 1005.4 |
| 20260509132451 | 55 | 241 | 0.0 | 6.1 | 0.00 | 0.00 | 0.00 | 72 | 1005.4 |
| 20260509132435 | 55 | 226 | 0.0 | 6.1 | 0.00 | 0.00 | 0.00 | 72 | 1005.5 |
| 20260509132132 | 55 | 247 | 0.0 | 6.1 | 0.00 | 0.00 | 0.00 | 72 | 1005.4 |
| 20260509132032 | 55 | 274 | 0.0 | 6.1 | 0.00 | 0.00 | 0.00 | 73 | 1005.4 |
| 20260509131728 | 55 | 235 | 0.0 | 6.1 | 0.00 | 0.00 | 0.00 | 74 | 1005.3 |
| 20260509131700 | 55 | 223 | 0.0 | 6.1 | 0.00 | 0.00 | 0.00 | 74 | 1005.3 |
| 20260509131526 | 55 | 206 | 0.0 | 3.5 | 0.00 | 0.00 | 0.00 | 74 | 1005.3 |
| 20260509131453 | 54 | 30 | 0.0 | 3.5 | 0.00 | 0.00 | 0.00 | 75 | 1005.1 |
| 20260509131435 | 54 | 94 | 0.0 | 3.5 | 0.00 | 0.00 | 0.00 | 75 | 1005.2 |
| 20260509131128 | 54 | 30 | 0.0 | 3.5 | 0.00 | 0.00 | 0.00 | 76 | 1005.1 |
| 20260509130928 | 54 | 30 | 0.0 | 4.3 | 0.00 | 0.00 | 0.00 | 76 | 1005.1 |
| 20260509130730 | 53 | 252 | 0.0 | 4.3 | 0.00 | 0.00 | 0.00 | 77 | 1005.1 |
| 20260509130701 | 53 | 252 | 0.0 | 4.3 | 0.00 | 0.00 | 0.00 | 77 | 1005.0 |
| 20260509130539 | 53 | 278 | 0.0 | 4.3 | 0.00 | 0.00 | 0.00 | 77 | 1005.0 |
| 20260509130529 | 53 | 251 | 0.0 | 4.3 | 0.00 | 0.00 | 0.00 | 76 | 1005.0 |
| 20260509130452 | 53 | 264 | 0.0 | 4.3 | 0.00 | 0.00 | 0.00 | 77 | 1004.9 |
| 20260509130128 | 53 | 272 | 0.0 | 4.3 | 0.00 | 0.00 | 0.00 | 77 | 1004.9 |
| 20260509125927 | 53 | 313 | 0.0 | 4.3 | 0.00 | 0.00 | 0.00 | 77 | 1005.0 |
| 20260509125728 | 53 | 135 | 0.0 | 5.2 | 0.00 | 0.00 | 0.00 | 77 | 1004.9 |
| 20260509125701 | 53 | 0 | 0.0 | 5.2 | 0.00 | 0.00 | 0.00 | 77 | 1004.9 |
| 20260509125528 | 53 | 20 | 0.0 | 5.2 | 0.00 | 0.00 | 0.00 | 77 | 1004.9 |
| 20260509125329 | 53 | 20 | 0.0 | 5.2 | 0.00 | 0.00 | 0.00 | 77 | 1004.9 |
| 20260509125202 | 53 | 20 | 0.0 | 5.2 | 0.00 | 0.00 | 0.00 | 77 | 1004.9 |
| 20260509125129 | 53 | 34 | 0.0 | 5.2 | 0.00 | 0.00 | 0.00 | 77 | 1004.9 |
| 20260509125013 | 53 | 298 | 0.0 | 5.2 | 0.00 | 0.00 | 0.00 | 77 | 1004.9 |
| 20260509124945 | 53 | 298 | 0.0 | 5.2 | 0.00 | 0.00 | 0.00 | 77 | 1004.9 |
| 20260509124939 | 53 | 213 | 0.0 | 5.2 | 0.00 | 0.00 | 0.00 | 77 | 1004.9 |
| 20260509124527 | 53 | 214 | 0.0 | 5.2 | 0.00 | 0.00 | 0.00 | 77 | 1004.7 |
| 20260509124329 | 53 | 231 | 0.0 | 5.2 | 0.00 | 0.00 | 0.00 | 77 | 1004.7 |
| 20260509124148 | 53 | 159 | 0.0 | 5.2 | 0.00 | 0.00 | 0.00 | 77 | 1004.7 |
| 20260509124123 | 53 | 227 | 0.0 | 5.2 | 0.00 | 0.00 | 0.00 | 77 | 1004.7 |
| 20260509123941 | 53 | 30 | 0.0 | 4.3 | 0.00 | 0.00 | 0.00 | 77 | 1004.6 |
| 20260509123931 | 53 | 123 | 0.0 | 5.2 | 0.00 | 0.00 | 0.00 | 77 | 1004.6 |
| 20260509123904 | 53 | 331 | 0.0 | 4.3 | 0.00 | 0.00 | 0.00 | 77 | 1004.6 |
| 20260509123520 | 53 | 123 | 0.0 | 3.5 | 0.00 | 0.00 | 0.00 | 77 | 1004.6 |
| 20260509123325 | 53 | 123 | 0.0 | 3.5 | 0.00 | 0.00 | 0.00 | 77 | 1004.6 |
| 20260509123222 | 53 | 243 | 0.0 | 3.5 | 0.00 | 0.00 | 0.00 | 76 | 1004.5 |
| 20260509123142 | 53 | 302 | 0.0 | 3.5 | 0.00 | 0.00 | 0.00 | 77 | 1004.6 |
| 20260509122934 | 53 | 49 | 0.0 | 3.5 | 0.00 | 0.00 | 0.00 | 77 | 1004.5 |
| 20260509122928 | 53 | 0 | 0.0 | 3.5 | 0.00 | 0.00 | 0.00 | 77 | 1004.5 |
| 20260509122901 | 53 | 185 | 0.0 | 3.5 | 0.00 | 0.00 | 0.00 | 77 | 1004.5 |
| 20260509122521 | 53 | 20 | 0.0 | 3.5 | 0.00 | 0.00 | 0.00 | 77 | 1004.4 |
| 20260509122318 | 53 | 110 | 0.0 | 3.5 | 0.00 | 0.00 | 0.00 | 77 | 1004.4 |
| 20260509122120 | 53 | 250 | 0.0 | 4.3 | 0.00 | 0.00 | 0.00 | 76 | 1004.4 |
| 20260509121917 | 53 | 252 | 0.0 | 4.3 | 0.00 | 0.00 | 0.00 | 76 | 1004.3 |
| 20260509121717 | 53 | 196 | 0.0 | 6.1 | 0.00 | 0.00 | 0.00 | 76 | 1004.4 |
| 20260509121635 | 53 | 228 | 0.0 | 6.1 | 0.00 | 0.00 | 0.00 | 76 | 1004.4 |
| 20260509121517 | 53 | 251 | 0.0 | 8.7 | 0.00 | 0.00 | 0.00 | 75 | 1004.3 |
| 20260509121317 | 53 | 289 | 0.0 | 8.7 | 0.00 | 0.00 | 0.00 | 75 | 1004.2 |
| 20260509121214 | 53 | 137 | 0.0 | 8.7 | 0.00 | 0.00 | 0.00 | 74 | 1004.3 |
| 20260509121134 | 53 | 137 | 0.0 | 8.7 | 0.00 | 0.00 | 0.00 | 74 | 1004.3 |
| 20260509120915 | 53 | 269 | 0.0 | 8.7 | 0.00 | 0.00 | 0.00 | 74 | 1004.2 |
| 20260509120713 | 53 | 216 | 0.0 | 8.7 | 0.00 | 0.00 | 0.00 | 74 | 1004.0 |
| 20260509120636 | 53 | 248 | 0.0 | 8.7 | 0.00 | 0.00 | 0.00 | 74 | 1004.0 |
| 20260509120511 | 53 | 241 | 0.0 | 10.4 | 0.00 | 0.00 | 0.00 | 74 | 1004.0 |
| 20260509120311 | 53 | 241 | 0.0 | 10.4 | 0.00 | 0.00 | 0.00 | 74 | 1003.9 |
| 20260509120110 | 53 | 223 | 0.0 | 10.4 | 0.00 | 0.00 | 0.00 | 74 | 1003.9 |
| 20260509115911 | 53 | 203 | 0.0 | 10.4 | 0.00 | 0.00 | 0.00 | 74 | 1004.0 |
| 20260509115712 | 53 | 228 | 0.0 | 10.4 | 0.00 | 0.00 | 0.00 | 73 | 1003.8 |
| 20260509115633 | 53 | 228 | 0.0 | 10.4 | 0.00 | 0.00 | 0.00 | 73 | 1003.8 |
| 20260509115607 | 53 | 238 | 0.0 | 6.1 | 0.00 | 0.00 | 0.00 | 73 | 1003.8 |
| 20260509115308 | 53 | 250 | 0.0 | 6.1 | 0.00 | 0.00 | 0.00 | 73 | 1003.7 |
| 20260509115138 | 53 | 248 | 0.0 | 5.2 | 0.00 | 0.00 | 0.00 | 73 | 1003.7 |
| 20260509115106 | 53 | 234 | 0.0 | 5.2 | 0.00 | 0.00 | 0.00 | 73 | 1003.7 |
| 20260509114905 | 53 | 250 | 0.0 | 5.2 | 0.00 | 0.00 | 0.00 | 73 | 1003.7 |
| 20260509114705 | 53 | 250 | 0.0 | 5.2 | 0.00 | 0.00 | 0.00 | 73 | 1003.7 |
| 20260509114633 | 53 | 250 | 0.0 | 5.2 | 0.00 | 0.00 | 0.00 | 73 | 1003.7 |
| 20260509114505 | 53 | 252 | 0.0 | 5.2 | 0.00 | 0.00 | 0.00 | 73 | 1003.8 |
| 20260509114302 | 53 | 250 | 0.0 | 5.2 | 0.00 | 0.00 | 0.00 | 73 | 1003.7 |
| 20260509114133 | 53 | 230 | 0.0 | 3.5 | 0.00 | 0.00 | 0.00 | 73 | 1003.7 |
| 20260509114103 | 53 | 230 | 0.0 | 3.5 | 0.00 | 0.00 | 0.00 | 73 | 1003.6 |
| 20260509113903 | 53 | 250 | 0.0 | 2.6 | 0.00 | 0.00 | 0.00 | 73 | 1003.5 |
| 20260509113703 | 53 | 247 | 0.0 | 2.6 | 0.00 | 0.00 | 0.00 | 73 | 1003.5 |
| 20260509113632 | 53 | 247 | 0.0 | 2.6 | 0.00 | 0.00 | 0.00 | 73 | 1003.5 |
| 20260509113604 | 53 | 248 | 0.0 | 2.6 | 0.00 | 0.00 | 0.00 | 73 | 1003.5 |
| 20260509113304 | 53 | 248 | 0.0 | 1.7 | 0.00 | 0.00 | 0.00 | 73 | 1003.5 |
| 20260509113103 | 53 | 248 | 0.0 | 1.7 | 0.00 | 0.00 | 0.00 | 73 | 1003.5 |
| 20260509112904 | 52 | 248 | 0.0 | 1.7 | 0.00 | 0.00 | 0.00 | 73 | 1003.4 |
| 20260509112631 | 52 | 248 | 0.0 | 1.7 | 0.00 | 0.00 | 0.00 | 73 | 1003.4 |
| 20260509112433 | 53 | 248 | 0.0 | 0.9 | 0.00 | 0.00 | 0.00 | 73 | 1003.4 |
| 20260509112230 | 52 | 248 | 0.0 | 2.6 | 0.00 | 0.00 | 0.00 | 72 | 1003.3 |
| 20260509112129 | 52 | 248 | 0.0 | 2.6 | 0.00 | 0.00 | 0.00 | 72 | 1003.4 |
| 20260509112036 | 53 | 248 | 0.0 | 2.6 | 0.00 | 0.00 | 0.00 | 72 | 1003.2 |
| 20260509111933 | 52 | 248 | 0.0 | 2.6 | 0.00 | 0.00 | 0.00 | 72 | 1003.3 |
| 20260509111629 | 52 | 248 | 0.0 | 2.6 | 0.00 | 0.00 | 0.00 | 72 | 1003.2 |
| 20260509111428 | 52 | 247 | 0.0 | 2.6 | 0.00 | 0.00 | 0.00 | 72 | 1003.2 |
| 20260509111225 | 52 | 247 | 0.0 | 1.7 | 0.00 | 0.00 | 0.00 | 72 | 1003.1 |
| 20260509111129 | 52 | 247 | 0.0 | 1.7 | 0.00 | 0.00 | 0.00 | 72 | 1003.2 |
| 20260509111010 | 52 | 247 | 0.0 | 1.7 | 0.00 | 0.00 | 0.00 | 72 | 1003.1 |
| 20260509110809 | 52 | 247 | 0.0 | 3.5 | 0.00 | 0.00 | 0.00 | 72 | 1003.0 |
| 20260509110627 | 52 | 247 | 0.0 | 3.5 | 0.00 | 0.00 | 0.00 | 72 | 1003.2 |
| 20260509110606 | 53 | 247 | 0.0 | 3.5 | 0.00 | 0.00 | 0.00 | 71 | 1003.1 |
| 20260509110404 | 52 | 247 | 0.0 | 3.5 | 0.00 | 0.00 | 0.00 | 71 | 1003.2 |
| 20260509110302 | 52 | 247 | 0.0 | 3.5 | 0.00 | 0.00 | 0.00 | 71 | 1003.1 |
| 20260509110125 | 52 | 247 | 0.0 | 3.5 | 0.00 | 0.00 | 0.00 | 72 | 1003.1 |
| 20260509110004 | 52 | 247 | 0.0 | 3.5 | 0.00 | 0.00 | 0.00 | 72 | 1003.1 |
| 20260509105804 | 52 | 258 | 0.0 | 1.7 | 0.00 | 0.00 | 0.00 | 72 | 1003.1 |
| 20260509105603 | 52 | 258 | 0.0 | 1.7 | 0.00 | 0.00 | 0.00 | 72 | 1003.1 |
| 20260509105406 | 52 | 258 | 0.0 | 1.7 | 0.00 | 0.00 | 0.00 | 72 | 1003.0 |
| 20260509105204 | 52 | 258 | 0.0 | 1.7 | 0.00 | 0.00 | 0.00 | 73 | 1003.0 |
| 20260509105126 | 52 | 258 | 0.0 | 1.7 | 0.00 | 0.00 | 0.00 | 72 | 1003.0 |
| 20260509105005 | 52 | 258 | 0.0 | 1.7 | 0.00 | 0.00 | 0.00 | 72 | 1002.9 |
| 20260509104801 | 52 | 258 | 0.0 | 2.6 | 0.00 | 0.00 | 0.00 | 72 | 1002.9 |
| 20260509104706 | 52 | 258 | 0.0 | 2.6 | 0.00 | 0.00 | 0.00 | 71 | 1003.1 |
| 20260509104625 | 52 | 258 | 0.0 | 2.6 | 0.00 | 0.00 | 0.00 | 71 | 1003.0 |
| 20260509104402 | 52 | 258 | 0.0 | 2.6 | 0.00 | 0.00 | 0.00 | 71 | 1003.1 |
| 20260509104201 | 52 | 258 | 0.0 | 2.6 | 0.00 | 0.00 | 0.00 | 71 | 1003.0 |
| 20260509104115 | 52 | 258 | 0.0 | 2.6 | 0.00 | 0.00 | 0.00 | 71 | 1003.1 |
| 20260509104005 | 52 | 258 | 0.0 | 2.6 | 0.00 | 0.00 | 0.00 | 71 | 1003.0 |
| 20260509103758 | 52 | 258 | 0.0 | 1.7 | 0.00 | 0.00 | 0.00 | 70 | 1002.9 |
| 20260509103615 | 52 | 258 | 0.0 | 1.7 | 0.00 | 0.00 | 0.00 | 68 | 1002.7 |
| 20260509103600 | 52 | 258 | 0.0 | 1.7 | 0.00 | 0.00 | 0.00 | 68 | 1002.7 |
| 20260509103359 | 52 | 258 | 0.0 | 1.7 | 0.00 | 0.00 | 0.00 | 68 | 1002.6 |
| 20260509103158 | 52 | 258 | 0.0 | 1.7 | 0.00 | 0.00 | 0.00 | 67 | 1002.6 |
| 20260509103113 | 53 | 258 | 0.0 | 1.7 | 0.00 | 0.00 | 0.00 | 67 | 1002.6 |
| 20260509103055 | 53 | 258 | 0.0 | 1.7 | 0.00 | 0.00 | 0.00 | 67 | 1002.5 |
| 20260509102754 | 53 | 258 | 0.0 | 1.7 | 0.00 | 0.00 | 0.00 | 66 | 1002.5 |
| 20260509102610 | 53 | 258 | 0.0 | 1.7 | 0.00 | 0.00 | 0.00 | 66 | 1002.6 |
| 20260509102554 | 53 | 258 | 0.0 | 0.9 | 0.00 | 0.00 | 0.00 | 66 | 1002.6 |
| 20260509102351 | 53 | 258 | 0.0 | 0.9 | 0.00 | 0.00 | 0.00 | 66 | 1002.6 |
| 20260509102150 | 53 | 258 | 0.0 | 1.7 | 0.00 | 0.00 | 0.00 | 66 | 1002.6 |
| 20260509102112 | 53 | 258 | 0.0 | 1.7 | 0.00 | 0.00 | 0.00 | 66 | 1002.7 |
| 20260509101955 | 53 | 258 | 0.0 | 1.7 | 0.00 | 0.00 | 0.00 | 66 | 1002.7 |
| 20260509101903 | 53 | 258 | 0.0 | 1.7 | 0.00 | 0.00 | 0.00 | 66 | 1002.9 |
| 20260509101844 | 53 | 258 | 0.0 | 1.7 | 0.00 | 0.00 | 0.00 | 66 | 1002.8 |
| 20260509101549 | 53 | 258 | 0.0 | 1.7 | 0.00 | 0.00 | 0.00 | 66 | 1002.9 |
| 20260509101349 | 53 | 258 | 0.0 | 1.7 | 0.00 | 0.00 | 0.00 | 67 | 1002.8 |
| 20260509101150 | 53 | 258 | 0.0 | 1.7 | 0.00 | 0.00 | 0.00 | 67 | 1002.8 |
| 20260509101108 | 53 | 258 | 0.0 | 1.7 | 0.00 | 0.00 | 0.00 | 67 | 1002.8 |
| 20260509101046 | 53 | 258 | 0.0 | 1.7 | 0.00 | 0.00 | 0.00 | 65 | 1002.8 |
| 20260509100857 | 53 | 258 | 0.0 | 1.7 | 0.00 | 0.00 | 0.00 | 64 | 1002.7 |
| 20260509100840 | 53 | 258 | 0.0 | 1.7 | 0.00 | 0.00 | 0.00 | 64 | 1002.7 |
| 20260509100546 | 53 | 258 | 0.0 | 1.7 | 0.00 | 0.00 | 0.00 | 64 | 1002.7 |
| 20260509100349 | 53 | 258 | 0.0 | 1.7 | 0.00 | 0.00 | 0.00 | 64 | 1002.7 |
| 20260509100141 | 52 | 258 | 0.0 | 0.9 | 0.00 | 0.00 | 0.00 | 64 | 1002.8 |
| 20260509100108 | 52 | 258 | 0.0 | 0.9 | 0.00 | 0.00 | 0.00 | 64 | 1002.9 |
| 20260509095940 | 52 | 258 | 0.0 | 1.7 | 0.00 | 0.00 | 0.00 | 64 | 1002.9 |
| 20260509095858 | 52 | 258 | 0.0 | 1.7 | 0.00 | 0.00 | 0.00 | 65 | 1003.2 |
| 20260509095841 | 52 | 258 | 0.0 | 1.7 | 0.00 | 0.00 | 0.00 | 65 | 1003.1 |
| 20260509095533 | 52 | 258 | 0.0 | 1.7 | 0.00 | 0.00 | 0.00 | 65 | 1003.2 |
| 20260509095435 | 52 | 258 | 0.0 | 1.7 | 0.00 | 0.00 | 0.00 | 65 | 1003.2 |
| 20260509095132 | 52 | 258 | 0.0 | 1.7 | 0.00 | 0.00 | 0.00 | 64 | 1003.3 |
| 20260509095107 | 52 | 258 | 0.0 | 1.7 | 0.00 | 0.00 | 0.00 | 64 | 1003.2 |
| 20260509094931 | 52 | 207 | 0.0 | 0.9 | 0.00 | 0.00 | 0.00 | 64 | 1003.2 |
| 20260509094901 | 52 | 207 | 0.0 | 0.9 | 0.00 | 0.00 | 0.00 | 64 | 1003.1 |
| 20260509094839 | 52 | 207 | 0.0 | 0.9 | 0.00 | 0.00 | 0.00 | 64 | 1003.2 |
| 20260509094530 | 52 | 207 | 0.0 | 1.7 | 0.00 | 0.00 | 0.00 | 64 | 1003.1 |
| 20260509094330 | 52 | 207 | 0.0 | 1.7 | 0.00 | 0.00 | 0.00 | 64 | 1003.3 |
| 20260509094108 | 52 | 207 | 0.0 | 1.7 | 0.00 | 0.00 | 0.00 | 64 | 1003.1 |
| 20260509093931 | 52 | 207 | 0.0 | 1.7 | 0.00 | 0.00 | 0.00 | 64 | 1003.1 |
| 20260509093730 | 52 | 207 | 0.0 | 1.7 | 0.00 | 0.00 | 0.00 | 63 | 1003.0 |
| 20260509093607 | 52 | 207 | 0.0 | 1.7 | 0.00 | 0.00 | 0.00 | 63 | 1003.0 |
| 20260509093532 | 52 | 207 | 0.0 | 0.9 | 0.00 | 0.00 | 0.00 | 62 | 1003.0 |
| 20260509093333 | 52 | 207 | 0.0 | 1.7 | 0.00 | 0.00 | 0.00 | 62 | 1003.0 |
| 20260509093130 | 52 | 207 | 0.0 | 1.7 | 0.00 | 0.00 | 0.00 | 61 | 1003.1 |
| 20260509093108 | 52 | 207 | 0.0 | 1.7 | 0.00 | 0.00 | 0.00 | 61 | 1003.0 |
| 20260509093024 | 52 | 207 | 0.0 | 1.7 | 0.00 | 0.00 | 0.00 | 61 | 1003.1 |
| 20260509092726 | 52 | 207 | 0.0 | 1.7 | 0.00 | 0.00 | 0.00 | 62 | 1003.1 |
| 20260509092607 | 52 | 207 | 0.0 | 1.7 | 0.00 | 0.00 | 0.00 | 62 | 1003.0 |
| 20260509092523 | 51 | 207 | 0.0 | 1.7 | 0.00 | 0.00 | 0.00 | 61 | 1003.0 |
| 20260509092323 | 51 | 207 | 0.0 | 0.9 | 0.00 | 0.00 | 0.00 | 60 | 1003.0 |
| 20260509092102 | 51 | 207 | 0.0 | 0.9 | 0.00 | 0.00 | 0.00 | 60 | 1002.9 |
| 20260509091924 | 51 | 207 | 0.0 | 0.9 | 0.00 | 0.00 | 0.00 | 60 | 1003.0 |
| 20260509091723 | 51 | 207 | 0.0 | 0.9 | 0.00 | 0.00 | 0.00 | 60 | 1003.0 |
| 20260509091603 | 51 | 207 | 0.0 | 0.9 | 0.00 | 0.00 | 0.00 | 60 | 1003.0 |
| 20260509091524 | 51 | 207 | 0.0 | 0.0 | 0.00 | 0.00 | 0.00 | 60 | 1002.9 |
| 20260509091423 | 52 | 207 | 0.0 | 0.0 | 0.00 | 0.00 | 0.00 | 59 | 1002.9 |
| 20260509091103 | 52 | 207 | 0.0 | 0.0 | 0.00 | 0.00 | 0.00 | 59 | 1002.8 |
| 20260509090909 | 52 | 207 | 0.0 | 0.0 | 0.00 | 0.00 | 0.00 | 59 | 1002.9 |
| 20260509090636 | 52 | 207 | 0.0 | 0.0 | 0.00 | 0.00 | 0.00 | 59 | 1002.8 |
| 20260509090555 | 52 | 207 | 0.0 | 0.0 | 0.00 | 0.00 | 0.00 | 59 | 1002.8 |
| 20260509090435 | 52 | 207 | 0.0 | 0.0 | 0.00 | 0.00 | 0.00 | 59 | 1002.6 |
| 20260509090235 | 52 | 207 | 0.0 | 0.9 | 0.00 | 0.00 | 0.00 | 59 | 1002.7 |
| 20260509090033 | 52 | 207 | 0.0 | 0.9 | 0.00 | 0.00 | 0.00 | 58 | 1002.7 |
| 20260509085833 | 52 | 207 | 0.0 | 1.7 | 0.00 | 0.00 | 0.00 | 58 | 1002.7 |
| 20260509085730 | 52 | 207 | 0.0 | 2.6 | 0.00 | 0.00 | 0.00 | 57 | 1002.6 |
| 20260509085546 | 52 | 207 | 0.0 | 2.6 | 0.00 | 0.00 | 0.00 | 57 | 1002.7 |
| 20260509085433 | 52 | 207 | 0.0 | 2.6 | 0.00 | 0.00 | 0.00 | 57 | 1002.8 |
| 20260509085231 | 52 | 207 | 0.0 | 2.6 | 0.00 | 0.00 | 0.00 | 57 | 1002.9 |
| 20260509085032 | 52 | 207 | 0.0 | 2.6 | 0.00 | 0.00 | 0.00 | 56 | 1002.7 |
| 20260509084830 | 52 | 207 | 0.0 | 2.6 | 0.00 | 0.00 | 0.00 | 56 | 1002.6 |
| 20260509084825 | 52 | 206 | 0.0 | 2.6 | 0.00 | 0.00 | 0.00 | 57 | 1002.6 |
| 20260509084800 | 52 | 206 | 0.0 | 2.6 | 0.00 | 0.00 | 0.00 | 56 | 1002.7 |
| 20260509084430 | 52 | 203 | 0.0 | 3.5 | 0.00 | 0.00 | 0.00 | 56 | 1002.7 |
| 20260509084228 | 53 | 173 | 0.0 | 3.5 | 0.00 | 0.00 | 0.00 | 56 | 1002.7 |
| 20260509084127 | 53 | 138 | 0.0 | 5.2 | 0.00 | 0.00 | 0.00 | 56 | 1002.5 |
| 20260509084030 | 53 | 138 | 0.0 | 5.2 | 0.00 | 0.00 | 0.00 | 56 | 1002.5 |
| 20260509083828 | 53 | 94 | 0.0 | 5.2 | 0.00 | 0.00 | 0.00 | 57 | 1002.8 |
| 20260509083823 | 53 | 180 | 0.0 | 5.2 | 0.00 | 0.00 | 0.00 | 56 | 1002.6 |
| 20260509083757 | 53 | 180 | 0.0 | 5.2 | 0.00 | 0.00 | 0.00 | 56 | 1002.6 |
| 20260509083427 | 53 | 148 | 0.0 | 5.2 | 0.00 | 0.00 | 0.00 | 55 | 1002.7 |
| 20260509083225 | 53 | 250 | 0.0 | 5.2 | 0.00 | 0.00 | 0.00 | 57 | 1002.6 |
| 20260509083024 | 53 | 288 | 0.0 | 5.2 | 0.00 | 0.00 | 0.00 | 55 | 1002.6 |
| 20260509082830 | 53 | 257 | 0.0 | 5.2 | 0.00 | 0.00 | 0.00 | 54 | 1001.9 |
| 20260509082810 | 53 | 245 | 0.0 | 5.2 | 0.00 | 0.00 | 0.00 | 55 | 1001.8 |
| 20260509082806 | 53 | 245 | 0.0 | 5.2 | 0.00 | 0.00 | 0.00 | 55 | 1001.8 |
| 20260509082751 | 53 | 245 | 0.0 | 5.2 | 0.00 | 0.00 | 0.00 | 55 | 1001.9 |
| 20260509082223 | 53 | 207 | 0.0 | 5.2 | 0.00 | 0.00 | 0.00 | 56 | 1001.6 |
| 20260509082019 | 52 | 213 | 0.0 | 3.5 | 0.00 | 0.00 | 0.00 | 57 | 1001.7 |
| 20260509081819 | 52 | 213 | 0.0 | 3.5 | 0.00 | 0.00 | 0.00 | 58 | 1001.7 |
| 20260509081615 | 52 | 209 | 0.0 | 3.5 | 0.00 | 0.00 | 0.00 | 58 | 1001.7 |
| 20260509081529 | 51 | 220 | 0.0 | 2.6 | 0.00 | 0.00 | 0.00 | 59 | 1001.7 |
| 20260509081416 | 51 | 227 | 0.0 | 2.6 | 0.00 | 0.00 | 0.00 | 59 | 1001.7 |
| 20260509081214 | 51 | 228 | 0.0 | 2.6 | 0.00 | 0.00 | 0.00 | 60 | 1001.7 |
| 20260509081029 | 51 | 228 | 0.0 | 2.6 | 0.00 | 0.00 | 0.00 | 61 | 1001.7 |
| 20260509081013 | 50 | 228 | 0.0 | 2.6 | 0.00 | 0.00 | 0.00 | 62 | 1001.6 |
| 20260509080846 | 50 | 223 | 0.0 | 2.6 | 0.00 | 0.00 | 0.00 | 64 | 1001.6 |
| 20260509080826 | 49 | 285 | 0.0 | 2.6 | 0.00 | 0.00 | 0.00 | 64 | 1001.6 |
| 20260509080815 | 50 | 223 | 0.0 | 2.6 | 0.00 | 0.00 | 0.00 | 61 | 1001.7 |
| 20260509080405 | 49 | 285 | 0.0 | 2.6 | 0.00 | 0.00 | 0.00 | 65 | 1001.6 |
| 20260509080203 | 49 | 309 | 0.0 | 0.0 | 0.00 | 0.00 | 0.00 | 67 | 1001.6 |
| 20260509080026 | 49 | 309 | 0.0 | 0.9 | 0.00 | 0.00 | 0.00 | 68 | 1001.6 |
| 20260509080003 | 48 | 309 | 0.0 | 0.9 | 0.00 | 0.00 | 0.00 | 68 | 1001.6 |
| 20260509075824 | 48 | 309 | 0.0 | 0.9 | 0.00 | 0.00 | 0.00 | 70 | 1001.7 |
| 20260509075814 | 48 | 309 | 0.0 | 0.9 | 0.00 | 0.00 | 0.00 | 68 | 1001.6 |
| 20260509075748 | 48 | 309 | 0.0 | 0.9 | 0.00 | 0.00 | 0.00 | 69 | 1001.7 |
| 20260509075402 | 48 | 309 | 0.0 | 0.9 | 0.00 | 0.00 | 0.00 | 70 | 1001.7 |
| 20260509075137 | 48 | 309 | 0.0 | 0.9 | 0.00 | 0.00 | 0.00 | 69 | 1001.7 |
| 20260509075037 | 48 | 309 | 0.0 | 0.9 | 0.00 | 0.00 | 0.00 | 69 | 1001.6 |
| 20260509075025 | 48 | 309 | 0.0 | 0.9 | 0.00 | 0.00 | 0.00 | 69 | 1001.6 |
| 20260509074821 | 48 | 309 | 0.0 | 0.9 | 0.00 | 0.00 | 0.00 | 69 | 1001.5 |
| 20260509074808 | 48 | 309 | 0.0 | 0.9 | 0.00 | 0.00 | 0.00 | 69 | 1001.5 |
| 20260509074738 | 48 | 309 | 0.0 | 0.9 | 0.00 | 0.00 | 0.00 | 69 | 1001.5 |
| 20260509074336 | 48 | 309 | 0.0 | 0.0 | 0.00 | 0.00 | 0.00 | 69 | 1001.4 |
| 20260509074133 | 48 | 309 | 0.0 | 0.0 | 0.00 | 0.00 | 0.00 | 69 | 1001.5 |
| 20260509074023 | 48 | 309 | 0.0 | 0.0 | 0.00 | 0.00 | 0.00 | 69 | 1001.5 |
| 20260509073931 | 48 | 309 | 0.0 | 0.0 | 0.00 | 0.00 | 0.00 | 69 | 1001.5 |
| 20260509073731 | 48 | 309 | 0.0 | 0.0 | 0.00 | 0.00 | 0.00 | 69 | 1001.5 |
| 20260509073524 | 48 | 309 | 0.0 | 0.0 | 0.00 | 0.00 | 0.00 | 69 | 1001.5 |
| 20260509073333 | 48 | 309 | 0.0 | 0.0 | 0.00 | 0.00 | 0.00 | 68 | 1001.5 |
| 20260509073133 | 48 | 309 | 0.0 | 0.0 | 0.00 | 0.00 | 0.00 | 68 | 1001.5 |
| 20260509073022 | 48 | 309 | 0.0 | 0.0 | 0.00 | 0.00 | 0.00 | 68 | 1001.4 |
| 20260509072934 | 48 | 309 | 0.0 | 0.0 | 0.00 | 0.00 | 0.00 | 68 | 1001.6 |
| 20260509072821 | 48 | 309 | 0.0 | 0.0 | 0.00 | 0.00 | 0.00 | 67 | 1001.6 |
| 20260509072811 | 48 | 309 | 0.0 | 0.0 | 0.00 | 0.00 | 0.00 | 68 | 1001.6 |
| 20260509072739 | 48 | 309 | 0.0 | 0.0 | 0.00 | 0.00 | 0.00 | 67 | 1001.6 |
| 20260509072427 | 48 | 309 | 0.0 | 0.0 | 0.00 | 0.00 | 0.00 | 67 | 1001.7 |
| 20260509072129 | 48 | 309 | 0.0 | 0.0 | 0.00 | 0.00 | 0.00 | 67 | 1001.7 |
| 20260509072032 | 48 | 309 | 0.0 | 0.0 | 0.00 | 0.00 | 0.00 | 66 | 1001.8 |
| 20260509071930 | 48 | 309 | 0.0 | 0.0 | 0.00 | 0.00 | 0.00 | 66 | 1001.7 |
| 20260509071829 | 48 | 309 | 0.0 | 0.0 | 0.00 | 0.00 | 0.00 | 66 | 1001.8 |
| 20260509071813 | 48 | 309 | 0.0 | 0.0 | 0.00 | 0.00 | 0.00 | 66 | 1001.7 |
| 20260509071741 | 48 | 309 | 0.0 | 0.0 | 0.00 | 0.00 | 0.00 | 66 | 1001.8 |
| 20260509071326 | 48 | 309 | 0.0 | 0.0 | 0.00 | 0.00 | 0.00 | 66 | 1001.9 |
| 20260509071126 | 48 | 309 | 0.0 | 0.0 | 0.00 | 0.00 | 0.00 | 66 | 1001.8 |
| 20260509071019 | 48 | 309 | 0.0 | 0.0 | 0.00 | 0.00 | 0.00 | 65 | 1001.9 |
| 20260509070927 | 48 | 309 | 0.0 | 0.0 | 0.00 | 0.00 | 0.00 | 65 | 1001.9 |
| 20260509070910 | 48 | 309 | 0.0 | 0.0 | 0.00 | 0.00 | 0.00 | 64 | 1001.9 |
| 20260509070818 | 48 | 309 | 0.0 | 0.0 | 0.00 | 0.00 | 0.00 | 64 | 1001.8 |
| 20260509070738 | 48 | 309 | 0.0 | 0.0 | 0.00 | 0.00 | 0.00 | 64 | 1001.8 |
| 20260509070326 | 48 | 309 | 0.0 | 0.0 | 0.00 | 0.00 | 0.00 | 63 | 1001.9 |
| 20260509070126 | 48 | 309 | 0.0 | 0.0 | 0.00 | 0.00 | 0.00 | 63 | 1001.7 |
| 20260509070051 | 48 | 309 | 0.0 | 0.0 | 0.00 | 0.00 | 0.00 | 63 | 1001.8 |
| 20260509065941 | 48 | 309 | 0.0 | 0.9 | 0.00 | 0.00 | 0.00 | 63 | 1001.8 |
| 20260509065728 | 48 | 309 | 0.0 | 0.9 | 0.00 | 0.00 | 0.00 | 65 | 1001.9 |
| 20260509065530 | 48 | 309 | 0.0 | 1.7 | 0.00 | 0.00 | 0.00 | 65 | 1002.0 |
| 20260509065520 | 48 | 309 | 0.0 | 1.7 | 0.00 | 0.00 | 0.00 | 65 | 1001.9 |
| 20260509065327 | 48 | 309 | 0.0 | 1.7 | 0.00 | 0.00 | 0.00 | 64 | 1002.0 |
| 20260509065221 | 48 | 309 | 0.0 | 1.7 | 0.00 | 0.00 | 0.00 | 64 | 1001.9 |
| 20260509065019 | 48 | 309 | 0.0 | 1.7 | 0.00 | 0.00 | 0.00 | 64 | 1002.0 |
| 20260509064927 | 48 | 309 | 0.0 | 1.7 | 0.00 | 0.00 | 0.00 | 64 | 1002.0 |
| 20260509064726 | 48 | 309 | 0.0 | 1.7 | 0.00 | 0.00 | 0.00 | 64 | 1002.0 |
| 20260509064518 | 48 | 309 | 0.0 | 0.9 | 0.00 | 0.00 | 0.00 | 64 | 1002.0 |
| 20260509064326 | 48 | 309 | 0.0 | 0.0 | 0.00 | 0.00 | 0.00 | 64 | 1002.1 |
| 20260509064126 | 48 | 309 | 0.0 | 0.0 | 0.00 | 0.00 | 0.00 | 63 | 1002.2 |
| 20260509064015 | 48 | 309 | 0.0 | 0.0 | 0.00 | 0.00 | 0.00 | 63 | 1002.1 |
| 20260509063927 | 48 | 309 | 0.0 | 0.0 | 0.00 | 0.00 | 0.00 | 63 | 1002.1 |
| 20260509063726 | 48 | 309 | 0.0 | 0.0 | 0.00 | 0.00 | 0.00 | 63 | 1002.2 |
| 20260509063628 | 48 | 309 | 0.0 | 0.0 | 0.00 | 0.00 | 0.00 | 63 | 1002.3 |
| 20260509063515 | 48 | 309 | 0.0 | 0.0 | 0.00 | 0.00 | 0.00 | 63 | 1002.3 |
| 20260509063327 | 48 | 309 | 0.0 | 0.0 | 0.00 | 0.00 | 0.00 | 61 | 1002.2 |
| 20260509063126 | 48 | 309 | 0.0 | 0.0 | 0.00 | 0.00 | 0.00 | 62 | 1002.4 |
| 20260509063013 | 48 | 309 | 0.0 | 0.0 | 0.00 | 0.00 | 0.00 | 63 | 1002.3 |
| 20260509062929 | 48 | 309 | 0.0 | 0.0 | 0.00 | 0.00 | 0.00 | 64 | 1002.3 |
| 20260509062726 | 48 | 309 | 0.0 | 0.0 | 0.00 | 0.00 | 0.00 | 66 | 1002.3 |
| 20260509062528 | 48 | 309 | 0.0 | 0.0 | 0.00 | 0.00 | 0.00 | 65 | 1002.3 |
| 20260509062514 | 48 | 309 | 0.0 | 0.0 | 0.00 | 0.00 | 0.00 | 64 | 1002.2 |
| 20260509062326 | 48 | 309 | 0.0 | 0.0 | 0.00 | 0.00 | 0.00 | 63 | 1002.2 |
| 20260509062126 | 48 | 309 | 0.0 | 0.0 | 0.00 | 0.00 | 0.00 | 62 | 1002.2 |
| 20260509062032 | 48 | 309 | 0.0 | 0.0 | 0.00 | 0.00 | 0.00 | 64 | 1002.1 |
| 20260509062014 | 48 | 309 | 0.0 | 0.0 | 0.00 | 0.00 | 0.00 | 63 | 1002.1 |
| 20260509061726 | 48 | 309 | 0.0 | 0.0 | 0.00 | 0.00 | 0.00 | 64 | 1002.2 |
| 20260509061528 | 48 | 309 | 0.0 | 0.0 | 0.00 | 0.00 | 0.00 | 64 | 1002.3 |
| 20260509061512 | 49 | 309 | 0.0 | 0.0 | 0.00 | 0.00 | 0.00 | 64 | 1002.3 |
| 20260509061326 | 49 | 309 | 0.0 | 0.0 | 0.00 | 0.00 | 0.00 | 62 | 1002.3 |
| 20260509061126 | 49 | 309 | 0.0 | 0.0 | 0.00 | 0.00 | 0.00 | 62 | 1002.3 |
| 20260509061011 | 49 | 309 | 0.0 | 0.0 | 0.00 | 0.00 | 0.00 | 62 | 1002.3 |
| 20260509060927 | 49 | 309 | 0.0 | 0.0 | 0.00 | 0.00 | 0.00 | 62 | 1002.3 |
| 20260509060727 | 49 | 309 | 0.0 | 0.0 | 0.00 | 0.00 | 0.00 | 63 | 1002.4 |
| 20260509060511 | 49 | 309 | 0.0 | 0.0 | 0.00 | 0.00 | 0.00 | 63 | 1002.3 |
| 20260509060326 | 49 | 309 | 0.0 | 0.0 | 0.00 | 0.00 | 0.00 | 60 | 1002.2 |
| 20260509060220 | 49 | 309 | 0.0 | 0.0 | 0.00 | 0.00 | 0.00 | 59 | 1002.2 |
| 20260509060009 | 49 | 309 | 0.0 | 0.0 | 0.00 | 0.00 | 0.00 | 59 | 1002.4 |
| 20260509055928 | 49 | 309 | 0.0 | 0.0 | 0.00 | 0.00 | 0.00 | 59 | 1002.4 |
| 20260509055727 | 50 | 309 | 0.0 | 0.0 | 0.00 | 0.00 | 0.00 | 59 | 1002.3 |
| 20260509055527 | 50 | 309 | 0.0 | 0.0 | 0.00 | 0.00 | 0.00 | 59 | 1002.4 |
| 20260509055507 | 50 | 309 | 0.0 | 0.0 | 0.00 | 0.00 | 0.00 | 58 | 1002.4 |
| 20260509055326 | 50 | 309 | 0.0 | 0.0 | 0.00 | 0.00 | 0.00 | 58 | 1002.4 |
| 20260509055130 | 50 | 309 | 0.0 | 0.0 | 0.00 | 0.00 | 0.00 | 57 | 1002.5 |
| 20260509055003 | 50 | 309 | 0.0 | 0.0 | 0.00 | 0.00 | 0.00 | 58 | 1002.5 |
| 20260509054927 | 50 | 309 | 0.0 | 0.0 | 0.00 | 0.00 | 0.00 | 58 | 1002.5 |
| 20260509054726 | 50 | 309 | 0.0 | 0.0 | 0.00 | 0.00 | 0.00 | 56 | 1002.6 |
| 20260509054629 | 50 | 309 | 0.0 | 0.0 | 0.00 | 0.00 | 0.00 | 56 | 1002.6 |
| 20260509054503 | 50 | 309 | 0.0 | 0.0 | 0.00 | 0.00 | 0.00 | 56 | 1002.7 |
| 20260509054326 | 51 | 309 | 0.0 | 0.0 | 0.00 | 0.00 | 0.00 | 56 | 1002.7 |
| 20260509054127 | 51 | 309 | 0.0 | 0.0 | 0.00 | 0.00 | 0.00 | 58 | 1002.8 |
| 20260509054000 | 51 | 309 | 0.0 | 0.0 | 0.00 | 0.00 | 0.00 | 58 | 1002.8 |
| 20260509053928 | 51 | 309 | 0.0 | 0.0 | 0.00 | 0.00 | 0.00 | 57 | 1002.8 |
| 20260509053809 | 51 | 309 | 0.0 | 0.0 | 0.00 | 0.00 | 0.00 | 59 | 1002.8 |
| 20260509053759 | 51 | 309 | 0.0 | 0.0 | 0.00 | 0.00 | 0.00 | 56 | 1002.7 |
| 20260509053724 | 51 | 309 | 0.0 | 0.0 | 0.00 | 0.00 | 0.00 | 59 | 1002.7 |
| 20260509053326 | 51 | 309 | 0.0 | 0.0 | 0.00 | 0.00 | 0.00 | 60 | 1002.8 |
| 20260509053129 | 52 | 309 | 0.0 | 0.0 | 0.00 | 0.00 | 0.00 | 59 | 1002.9 |
| 20260509053002 | 52 | 309 | 0.0 | 0.0 | 0.00 | 0.00 | 0.00 | 60 | 1002.8 |
| 20260509052927 | 52 | 309 | 0.0 | 0.0 | 0.00 | 0.00 | 0.00 | 62 | 1002.8 |
| 20260509052726 | 52 | 309 | 0.0 | 0.0 | 0.00 | 0.00 | 0.00 | 61 | 1002.9 |
| 20260509052528 | 53 | 309 | 0.0 | 0.0 | 0.00 | 0.00 | 0.00 | 57 | 1002.8 |
| 20260509052502 | 52 | 309 | 0.0 | 0.0 | 0.00 | 0.00 | 0.00 | 57 | 1002.7 |
| 20260509052328 | 53 | 309 | 0.0 | 0.0 | 0.00 | 0.00 | 0.00 | 55 | 1002.7 |
| 20260509052225 | 53 | 309 | 0.0 | 0.0 | 0.00 | 0.00 | 0.00 | 53 | 1002.7 |
| 20260509052002 | 53 | 309 | 0.0 | 0.0 | 0.00 | 0.00 | 0.00 | 52 | 1002.7 |
| 20260509051927 | 53 | 309 | 0.0 | 0.0 | 0.00 | 0.00 | 0.00 | 52 | 1002.7 |
| 20260509051727 | 53 | 309 | 0.0 | 0.0 | 0.00 | 0.00 | 0.00 | 50 | 1002.7 |
| 20260509051529 | 54 | 309 | 0.0 | 0.0 | 0.00 | 0.00 | 0.00 | 51 | 1002.8 |
| 20260509051501 | 54 | 309 | 0.0 | 0.0 | 0.00 | 0.00 | 0.00 | 51 | 1002.7 |
| 20260509051328 | 54 | 309 | 0.0 | 0.0 | 0.00 | 0.00 | 0.00 | 51 | 1002.8 |
| 20260509051128 | 54 | 309 | 0.0 | 0.0 | 0.00 | 0.00 | 0.00 | 52 | 1002.9 |
| 20260509051001 | 54 | 309 | 0.0 | 0.0 | 0.00 | 0.00 | 0.00 | 52 | 1002.9 |
| 20260509050929 | 54 | 309 | 0.0 | 0.0 | 0.00 | 0.00 | 0.00 | 52 | 1002.9 |
| 20260509050727 | 55 | 309 | 0.0 | 0.0 | 0.00 | 0.00 | 0.00 | 54 | 1003.0 |
| 20260509050626 | 55 | 309 | 0.0 | 0.0 | 0.00 | 0.00 | 0.00 | 52 | 1002.9 |
| 20260509050501 | 55 | 309 | 0.0 | 0.0 | 0.00 | 0.00 | 0.00 | 52 | 1003.0 |
| 20260509050326 | 55 | 309 | 0.0 | 0.0 | 0.00 | 0.00 | 0.00 | 52 | 1002.9 |
| 20260509050126 | 55 | 309 | 0.0 | 0.0 | 0.00 | 0.00 | 0.00 | 55 | 1003.1 |
| 20260509050002 | 56 | 309 | 0.0 | 0.0 | 0.00 | 0.00 | 0.00 | 57 | 1003.1 |
| 20260509045927 | 56 | 309 | 0.0 | 0.0 | 0.00 | 0.00 | 0.00 | 57 | 1003.1 |
| 20260509045726 | 56 | 309 | 0.0 | 0.0 | 0.00 | 0.00 | 0.00 | 54 | 1003.2 |
| 20260509045501 | 56 | 309 | 0.0 | 0.0 | 0.00 | 0.00 | 0.00 | 56 | 1003.1 |
| 20260509045327 | 56 | 309 | 0.0 | 0.0 | 0.00 | 0.00 | 0.00 | 57 | 1003.1 |
| 20260509045126 | 56 | 309 | 0.0 | 0.0 | 0.00 | 0.00 | 0.00 | 55 | 1003.1 |
| 20260509045002 | 56 | 309 | 0.0 | 0.0 | 0.00 | 0.00 | 0.00 | 53 | 1003.1 |
| 20260509044927 | 56 | 309 | 0.0 | 0.9 | 0.00 | 0.00 | 0.00 | 53 | 1003.1 |
| 20260509044725 | 56 | 309 | 0.0 | 0.9 | 0.00 | 0.00 | 0.00 | 51 | 1003.1 |
| 20260509044625 | 57 | 309 | 0.0 | 0.9 | 0.00 | 0.00 | 0.00 | 53 | 1003.1 |
| 20260509044502 | 57 | 309 | 0.0 | 0.9 | 0.00 | 0.00 | 0.00 | 52 | 1003.1 |
| 20260509044326 | 57 | 309 | 0.0 | 0.9 | 0.00 | 0.00 | 0.00 | 52 | 1003.1 |
| 20260509044127 | 57 | 309 | 0.0 | 0.9 | 0.00 | 0.00 | 0.00 | 53 | 1003.1 |
| 20260509044002 | 57 | 309 | 0.0 | 0.9 | 0.00 | 0.00 | 0.00 | 52 | 1003.2 |
| 20260509043928 | 57 | 309 | 0.0 | 0.9 | 0.00 | 0.00 | 0.00 | 52 | 1003.2 |
| 20260509043726 | 57 | 309 | 0.0 | 0.9 | 0.00 | 0.00 | 0.00 | 48 | 1003.2 |
| 20260509043527 | 57 | 309 | 0.0 | 0.9 | 0.00 | 0.00 | 0.00 | 45 | 1003.2 |
| 20260509043501 | 57 | 309 | 0.0 | 0.9 | 0.00 | 0.00 | 0.00 | 45 | 1003.1 |
| 20260509043327 | 57 | 309 | 0.0 | 0.9 | 0.00 | 0.00 | 0.00 | 43 | 1003.2 |
| 20260509043127 | 57 | 309 | 0.0 | 0.9 | 0.00 | 0.00 | 0.00 | 45 | 1003.3 |
| 20260509043032 | 58 | 309 | 0.0 | 0.9 | 0.00 | 0.00 | 0.00 | 44 | 1003.2 |
| 20260509043003 | 58 | 309 | 0.0 | 0.9 | 0.00 | 0.00 | 0.00 | 44 | 1003.2 |
| 20260509042727 | 58 | 309 | 0.0 | 0.9 | 0.00 | 0.00 | 0.00 | 44 | 1003.3 |
| 20260509042502 | 58 | 309 | 0.0 | 0.9 | 0.00 | 0.00 | 0.00 | 42 | 1003.3 |
| 20260509042327 | 58 | 309 | 0.0 | 0.9 | 0.00 | 0.00 | 0.00 | 42 | 1003.3 |
| 20260509042127 | 58 | 309 | 0.0 | 0.9 | 0.00 | 0.00 | 0.00 | 42 | 1003.3 |
| 20260509041927 | 58 | 309 | 0.0 | 1.7 | 0.00 | 0.00 | 0.00 | 42 | 1003.3 |
| 20260509041727 | 58 | 309 | 0.0 | 1.7 | 0.00 | 0.00 | 0.00 | 42 | 1003.2 |
| 20260509041525 | 58 | 309 | 0.0 | 1.7 | 0.00 | 0.00 | 0.00 | 42 | 1003.2 |
| 20260509041434 | 58 | 309 | 0.0 | 1.7 | 0.00 | 0.00 | 0.00 | 43 | 1003.2 |
| 20260509041324 | 59 | 309 | 0.0 | 1.7 | 0.00 | 0.00 | 0.00 | 43 | 1003.2 |
| 20260509041125 | 59 | 309 | 0.0 | 1.7 | 0.00 | 0.00 | 0.00 | 44 | 1003.2 |
| 20260509040924 | 59 | 309 | 0.0 | 1.7 | 0.00 | 0.00 | 0.00 | 44 | 1003.2 |
| 20260509040722 | 59 | 309 | 0.0 | 1.7 | 0.00 | 0.00 | 0.00 | 42 | 1003.1 |
| 20260509040523 | 59 | 309 | 0.0 | 1.7 | 0.00 | 0.00 | 0.00 | 41 | 1003.1 |
| 20260509040430 | 59 | 309 | 0.0 | 1.7 | 0.00 | 0.00 | 0.00 | 41 | 1003.2 |
| 20260509040418 | 59 | 309 | 0.0 | 1.7 | 0.00 | 0.00 | 0.00 | 42 | 1003.2 |
| 20260509040123 | 59 | 309 | 0.0 | 1.7 | 0.00 | 0.00 | 0.00 | 41 | 1003.2 |
| 20260509035923 | 59 | 310 | 0.0 | 1.7 | 0.00 | 0.00 | 0.00 | 42 | 1003.3 |
| 20260509035722 | 59 | 310 | 0.0 | 1.7 | 0.00 | 0.00 | 0.00 | 40 | 1003.2 |
| 20260509035522 | 59 | 317 | 0.0 | 1.7 | 0.00 | 0.00 | 0.00 | 41 | 1003.2 |
| 20260509035429 | 59 | 329 | 0.0 | 1.7 | 0.00 | 0.00 | 0.00 | 41 | 1003.2 |
| 20260509035321 | 59 | 329 | 0.0 | 1.7 | 0.00 | 0.00 | 0.00 | 41 | 1003.2 |
| 20260509035116 | 59 | 329 | 0.0 | 1.7 | 0.00 | 0.00 | 0.00 | 40 | 1003.1 |
| 20260509034929 | 60 | 336 | 0.0 | 1.7 | 0.00 | 0.00 | 0.00 | 40 | 1003.3 |
| 20260509034910 | 60 | 336 | 0.0 | 1.7 | 0.00 | 0.00 | 0.00 | 40 | 1003.2 |
| 20260509034805 | 60 | 247 | 0.0 | 1.7 | 0.00 | 0.00 | 0.00 | 41 | 1003.2 |
| 20260509034510 | 60 | 247 | 0.0 | 1.7 | 0.00 | 0.00 | 0.00 | 40 | 1003.2 |
| 20260509034429 | 60 | 247 | 0.0 | 1.7 | 0.00 | 0.00 | 0.00 | 41 | 1003.2 |
| 20260509034310 | 60 | 247 | 0.0 | 1.7 | 0.00 | 0.00 | 0.00 | 41 | 1003.1 |
| 20260509034109 | 60 | 247 | 0.0 | 2.6 | 0.00 | 0.00 | 0.00 | 40 | 1003.2 |
| 20260509033909 | 60 | 247 | 0.0 | 2.6 | 0.00 | 0.00 | 0.00 | 40 | 1003.2 |
| 20260509033710 | 60 | 247 | 0.0 | 2.6 | 0.00 | 0.00 | 0.00 | 39 | 1003.1 |
| 20260509033507 | 60 | 247 | 0.0 | 2.6 | 0.00 | 0.00 | 0.00 | 39 | 1003.2 |
| 20260509033428 | 60 | 247 | 0.0 | 2.6 | 0.00 | 0.00 | 0.00 | 39 | 1003.2 |
| 20260509033315 | 60 | 217 | 0.0 | 5.2 | 0.00 | 0.00 | 0.00 | 39 | 1003.2 |
| 20260509033307 | 60 | 247 | 0.0 | 2.6 | 0.00 | 0.00 | 0.00 | 40 | 1003.2 |
| 20260509033227 | 61 | 113 | 0.0 | 5.2 | 0.00 | 0.00 | 0.00 | 40 | 1003.1 |
| 20260509032906 | 61 | 111 | 0.0 | 5.2 | 0.00 | 0.00 | 0.00 | 39 | 1003.0 |
| 20260509032708 | 61 | 192 | 0.0 | 5.2 | 0.00 | 0.00 | 0.00 | 40 | 1003.1 |
| 20260509032505 | 61 | 192 | 0.0 | 5.2 | 0.00 | 0.00 | 0.00 | 40 | 1003.0 |
| 20260509032426 | 61 | 192 | 0.0 | 5.2 | 0.00 | 0.00 | 0.00 | 39 | 1003.0 |
| 20260509032307 | 61 | 0 | 0.0 | 5.2 | 0.00 | 0.00 | 0.00 | 39 | 1002.9 |
| 20260509032106 | 61 | 250 | 0.0 | 3.5 | 0.00 | 0.00 | 0.00 | 38 | 1003.0 |
| 20260509031925 | 61 | 213 | 0.0 | 2.6 | 0.00 | 0.00 | 0.00 | 40 | 1003.0 |
| 20260509031905 | 61 | 214 | 0.0 | 2.6 | 0.00 | 0.00 | 0.00 | 40 | 1003.1 |
| 20260509031802 | 61 | 259 | 0.0 | 2.6 | 0.00 | 0.00 | 0.00 | 39 | 1002.9 |
| 20260509031504 | 61 | 255 | 0.0 | 2.6 | 0.00 | 0.00 | 0.00 | 39 | 1003.0 |
| 20260509031425 | 61 | 255 | 0.0 | 2.6 | 0.00 | 0.00 | 0.00 | 39 | 1003.0 |
| 20260509031307 | 61 | 257 | 0.0 | 2.6 | 0.00 | 0.00 | 0.00 | 39 | 1002.9 |
| 20260509031106 | 62 | 161 | 0.0 | 2.6 | 0.00 | 0.00 | 0.00 | 40 | 1002.9 |
| 20260509030923 | 62 | 161 | 0.0 | 2.6 | 0.00 | 0.00 | 0.00 | 40 | 1002.8 |
| 20260509030850 | 62 | 161 | 0.0 | 4.3 | 0.00 | 0.00 | 0.00 | 40 | 1002.8 |
| 20260509030647 | 62 | 164 | 0.0 | 4.3 | 0.00 | 0.00 | 0.00 | 38 | 1002.8 |
| 20260509030445 | 62 | 192 | 0.0 | 4.3 | 0.00 | 0.00 | 0.00 | 39 | 1002.8 |
| 20260509030410 | 62 | 92 | 0.0 | 4.3 | 0.00 | 0.00 | 0.00 | 39 | 1002.8 |
| 20260509030245 | 62 | 37 | 0.0 | 4.3 | 0.00 | 0.00 | 0.00 | 38 | 1002.8 |
| 20260509030144 | 62 | 39 | 0.0 | 4.3 | 0.00 | 0.00 | 0.00 | 38 | 1002.9 |
| 20260509025904 | 62 | 251 | 0.0 | 3.5 | 0.00 | 0.00 | 0.00 | 37 | 1002.7 |
| 20260509025846 | 63 | 254 | 0.0 | 6.1 | 0.00 | 0.00 | 0.00 | 37 | 1002.7 |
| 20260509025631 | 63 | 238 | 0.0 | 6.1 | 0.00 | 0.00 | 0.00 | 37 | 1002.8 |
| 20260509025406 | 63 | 238 | 0.0 | 6.1 | 0.00 | 0.00 | 0.00 | 37 | 1002.8 |
| 20260509025227 | 63 | 278 | 0.0 | 6.1 | 0.00 | 0.00 | 0.00 | 38 | 1002.8 |
| 20260509025028 | 63 | 241 | 0.0 | 6.1 | 0.00 | 0.00 | 0.00 | 38 | 1002.7 |
| 20260509024859 | 63 | 271 | 0.0 | 6.1 | 0.00 | 0.00 | 0.00 | 38 | 1002.7 |
| 20260509024826 | 63 | 245 | 0.0 | 4.3 | 0.00 | 0.00 | 0.00 | 38 | 1002.7 |
| 20260509024627 | 63 | 254 | 0.0 | 4.3 | 0.00 | 0.00 | 0.00 | 37 | 1002.7 |
| 20260509024527 | 63 | 252 | 0.0 | 5.2 | 0.00 | 0.00 | 0.00 | 37 | 1002.6 |
| 20260509024359 | 63 | 261 | 0.0 | 5.2 | 0.00 | 0.00 | 0.00 | 37 | 1002.6 |
| 20260509024225 | 63 | 285 | 0.0 | 5.2 | 0.00 | 0.00 | 0.00 | 38 | 1002.6 |
| 20260509024023 | 63 | 245 | 0.0 | 5.2 | 0.00 | 0.00 | 0.00 | 37 | 1002.7 |
| 20260509023900 | 63 | 265 | 0.0 | 5.2 | 0.00 | 0.00 | 0.00 | 37 | 1002.6 |
| 20260509023806 | 63 | 269 | 0.0 | 5.2 | 0.00 | 0.00 | 0.00 | 37 | 1002.4 |
| 20260509023608 | 63 | 248 | 0.0 | 5.2 | 0.00 | 0.00 | 0.00 | 37 | 1002.5 |
| 20260509023407 | 63 | 251 | 0.0 | 5.2 | 0.00 | 0.00 | 0.00 | 37 | 1002.5 |
| 20260509023358 | 63 | 251 | 0.0 | 5.2 | 0.00 | 0.00 | 0.00 | 37 | 1002.5 |
| 20260509023205 | 64 | 196 | 0.0 | 5.2 | 0.00 | 0.00 | 0.00 | 36 | 1002.5 |
| 20260509023002 | 64 | 196 | 0.0 | 6.1 | 0.00 | 0.00 | 0.00 | 37 | 1002.5 |
| 20260509022913 | 64 | 219 | 0.0 | 6.1 | 0.00 | 0.00 | 0.00 | 37 | 1002.5 |
| 20260509022858 | 64 | 224 | 0.0 | 6.1 | 0.00 | 0.00 | 0.00 | 37 | 1002.6 |
| 20260509022602 | 64 | 250 | 0.0 | 6.1 | 0.00 | 0.00 | 0.00 | 37 | 1002.5 |
| 20260509022400 | 64 | 254 | 0.0 | 6.1 | 0.00 | 0.00 | 0.00 | 36 | 1002.5 |
| 20260509022158 | 64 | 257 | 0.0 | 6.1 | 0.00 | 0.00 | 0.00 | 35 | 1002.3 |
| 20260509021956 | 64 | 261 | 0.0 | 5.2 | 0.00 | 0.00 | 0.00 | 36 | 1002.3 |
| 20260509021856 | 64 | 261 | 0.0 | 5.2 | 0.00 | 0.00 | 0.00 | 36 | 1002.4 |
| 20260509021749 | 64 | 261 | 0.0 | 5.2 | 0.00 | 0.00 | 0.00 | 36 | 1002.3 |
| 20260509021551 | 64 | 244 | 0.0 | 5.2 | 0.00 | 0.00 | 0.00 | 35 | 1002.2 |
| 20260509021348 | 64 | 265 | 0.0 | 4.3 | 0.00 | 0.00 | 0.00 | 36 | 1002.3 |
| 20260509021249 | 64 | 252 | 0.0 | 4.3 | 0.00 | 0.00 | 0.00 | 36 | 1002.1 |
| 20260509020949 | 64 | 264 | 0.0 | 4.3 | 0.00 | 0.00 | 0.00 | 37 | 1002.1 |
| 20260509020848 | 64 | 247 | 0.0 | 4.3 | 0.00 | 0.00 | 0.00 | 36 | 1002.1 |
| 20260509020747 | 64 | 247 | 0.0 | 4.3 | 0.00 | 0.00 | 0.00 | 36 | 1002.0 |
| 20260509020548 | 64 | 240 | 0.0 | 5.2 | 0.00 | 0.00 | 0.00 | 36 | 1002.0 |
| 20260509020450 | 64 | 237 | 0.0 | 5.2 | 0.00 | 0.00 | 0.00 | 36 | 1002.0 |
| 20260509020346 | 64 | 237 | 0.0 | 5.2 | 0.00 | 0.00 | 0.00 | 36 | 1002.0 |
| 20260509020146 | 65 | 240 | 0.0 | 5.2 | 0.00 | 0.00 | 0.00 | 36 | 1001.9 |
| 20260509015945 | 65 | 213 | 0.0 | 5.2 | 0.00 | 0.00 | 0.00 | 35 | 1002.0 |
| 20260509015846 | 64 | 216 | 0.0 | 5.2 | 0.00 | 0.00 | 0.00 | 35 | 1001.9 |
| 20260509015746 | 65 | 227 | 0.0 | 5.2 | 0.00 | 0.00 | 0.00 | 36 | 1002.0 |
| 20260509015544 | 65 | 250 | 0.0 | 4.3 | 0.00 | 0.00 | 0.00 | 35 | 1001.9 |
| 20260509015348 | 65 | 226 | 0.0 | 4.3 | 0.00 | 0.00 | 0.00 | 34 | 1001.8 |
| 20260509015136 | 65 | 250 | 0.0 | 4.3 | 0.00 | 0.00 | 0.00 | 34 | 1001.9 |
| 20260509014938 | 65 | 217 | 0.0 | 11.3 | 0.00 | 0.00 | 0.00 | 34 | 1001.8 |
| 20260509014844 | 65 | 159 | 0.0 | 11.3 | 0.00 | 0.00 | 0.00 | 35 | 1001.8 |
| 20260509014835 | 65 | 217 | 0.0 | 11.3 | 0.00 | 0.00 | 0.00 | 35 | 1001.8 |
| 20260509014534 | 65 | 227 | 0.0 | 11.3 | 0.00 | 0.00 | 0.00 | 34 | 1001.8 |
| 20260509014335 | 65 | 250 | 0.0 | 11.3 | 0.00 | 0.00 | 0.00 | 34 | 1001.8 |
| 20260509014134 | 65 | 254 | 0.0 | 11.3 | 0.00 | 0.00 | 0.00 | 33 | 1001.7 |
| 20260509013933 | 65 | 252 | 0.0 | 4.3 | 0.00 | 0.00 | 0.00 | 34 | 1001.7 |
| 20260509013830 | 65 | 252 | 0.0 | 4.3 | 0.00 | 0.00 | 0.00 | 34 | 1001.7 |
| 20260509013735 | 65 | 252 | 0.0 | 4.3 | 0.00 | 0.00 | 0.00 | 33 | 1001.7 |
| 20260509013532 | 66 | 254 | 0.0 | 4.3 | 0.00 | 0.00 | 0.00 | 33 | 1001.6 |
| 20260509013331 | 66 | 241 | 0.0 | 6.1 | 0.00 | 0.00 | 0.00 | 34 | 1001.6 |
| 20260509013227 | 66 | 237 | 0.0 | 6.1 | 0.00 | 0.00 | 0.00 | 33 | 1001.6 |
| 20260509012931 | 66 | 241 | 0.0 | 6.1 | 0.00 | 0.00 | 0.00 | 32 | 1001.6 |
| 20260509012833 | 66 | 233 | 0.0 | 6.1 | 0.00 | 0.00 | 0.00 | 31 | 1001.5 |
| 20260509012732 | 66 | 252 | 0.0 | 6.1 | 0.00 | 0.00 | 0.00 | 32 | 1001.5 |
| 20260509012631 | 66 | 254 | 0.0 | 5.2 | 0.00 | 0.00 | 0.00 | 31 | 1001.5 |
| 20260509012616 | 66 | 276 | 0.0 | 6.1 | 0.00 | 0.00 | 0.00 | 31 | 1001.5 |
| 20260509012124 | 66 | 233 | 0.0 | 5.2 | 0.00 | 0.00 | 0.00 | 32 | 1001.4 |
| 20260509011924 | 67 | 274 | 0.0 | 5.2 | 0.00 | 0.00 | 0.00 | 31 | 1001.4 |
| 20260509011833 | 67 | 223 | 0.0 | 5.2 | 0.00 | 0.00 | 0.00 | 31 | 1001.5 |
| 20260509011726 | 67 | 216 | 0.0 | 5.2 | 0.00 | 0.00 | 0.00 | 31 | 1001.5 |
| 20260509011626 | 67 | 255 | 0.0 | 4.3 | 0.00 | 0.00 | 0.00 | 30 | 1001.5 |
| 20260509011608 | 67 | 254 | 0.0 | 4.3 | 0.00 | 0.00 | 0.00 | 31 | 1001.5 |
| 20260509011325 | 67 | 255 | 0.0 | 4.3 | 0.00 | 0.00 | 0.00 | 30 | 1001.5 |
| 20260509011106 | 67 | 255 | 0.0 | 5.2 | 0.00 | 0.00 | 0.00 | 30 | 1001.5 |
| 20260509010903 | 67 | 248 | 0.0 | 6.1 | 0.00 | 0.00 | 0.00 | 31 | 1001.4 |
| 20260509010828 | 67 | 243 | 0.0 | 7.8 | 0.00 | 0.00 | 0.00 | 31 | 1001.4 |
| 20260509010804 | 67 | 241 | 0.0 | 7.8 | 0.00 | 0.00 | 0.00 | 31 | 1001.4 |
| 20260509010608 | 68 | 247 | 0.0 | 9.6 | 0.00 | 0.00 | 0.00 | 29 | 1001.4 |
| 20260509010552 | 68 | 247 | 0.0 | 7.8 | 0.00 | 0.00 | 0.00 | 29 | 1001.4 |
| 20260509010305 | 68 | 243 | 0.0 | 9.6 | 0.00 | 0.00 | 0.00 | 29 | 1001.4 |
| 20260509010034 | 68 | 235 | 0.0 | 9.6 | 0.00 | 0.00 | 0.00 | 30 | 1001.3 |
| 20260509005833 | 68 | 233 | 0.0 | 9.6 | 0.00 | 0.00 | 0.00 | 31 | 1001.4 |
| 20260509005814 | 68 | 235 | 0.0 | 9.6 | 0.00 | 0.00 | 0.00 | 31 | 1001.4 |
| 20260509005634 | 68 | 258 | 0.0 | 9.6 | 0.00 | 0.00 | 0.00 | 30 | 1001.4 |
| 20260509005432 | 68 | 255 | 0.0 | 9.6 | 0.00 | 0.00 | 0.00 | 29 | 1001.3 |
| 20260509005318 | 68 | 262 | 0.0 | 9.6 | 0.00 | 0.00 | 0.00 | 30 | 1001.4 |
| 20260509005231 | 68 | 251 | 0.0 | 9.6 | 0.00 | 0.00 | 0.00 | 30 | 1001.4 |
| 20260509005127 | 68 | 243 | 0.0 | 9.6 | 0.00 | 0.00 | 0.00 | 31 | 1001.3 |
| 20260509004831 | 69 | 254 | 0.0 | 5.2 | 0.00 | 0.00 | 0.00 | 31 | 1001.2 |
| 20260509004815 | 68 | 254 | 0.0 | 5.2 | 0.00 | 0.00 | 0.00 | 31 | 1001.2 |
| 20260509004631 | 69 | 154 | 0.0 | 7.8 | 0.00 | 0.00 | 0.00 | 31 | 1001.3 |
| 20260509004529 | 69 | 233 | 0.0 | 7.8 | 0.00 | 0.00 | 0.00 | 31 | 1001.3 |
| 20260509004309 | 69 | 233 | 0.0 | 7.8 | 0.00 | 0.00 | 0.00 | 30 | 1001.2 |
| 20260509004230 | 69 | 259 | 0.0 | 7.8 | 0.00 | 0.00 | 0.00 | 31 | 1001.2 |
| 20260509004031 | 69 | 247 | 0.0 | 7.8 | 0.00 | 0.00 | 0.00 | 30 | 1001.2 |
| 20260509003830 | 69 | 251 | 0.0 | 7.8 | 0.00 | 0.00 | 0.00 | 31 | 1001.2 |
| 20260509003805 | 69 | 257 | 0.0 | 7.8 | 0.00 | 0.00 | 0.00 | 30 | 1001.2 |
| 20260509003630 | 69 | 252 | 0.0 | 7.8 | 0.00 | 0.00 | 0.00 | 30 | 1001.2 |
| 20260509003428 | 69 | 272 | 0.0 | 7.8 | 0.00 | 0.00 | 0.00 | 30 | 1001.2 |
| 20260509003305 | 69 | 278 | 0.0 | 7.8 | 0.00 | 0.00 | 0.00 | 30 | 1001.2 |
| 20260509003229 | 69 | 264 | 0.0 | 7.8 | 0.00 | 0.00 | 0.00 | 30 | 1001.2 |
| 20260509003027 | 69 | 227 | 0.0 | 7.8 | 0.00 | 0.00 | 0.00 | 31 | 1001.2 |
| 20260509002926 | 69 | 238 | 0.0 | 7.8 | 0.00 | 0.00 | 0.00 | 32 | 1001.1 |
| 20260509002806 | 69 | 190 | 0.0 | 7.8 | 0.00 | 0.00 | 0.00 | 31 | 1001.2 |
| 20260509002630 | 69 | 248 | 0.0 | 7.8 | 0.00 | 0.00 | 0.00 | 31 | 1001.2 |
| 20260509002427 | 70 | 248 | 0.0 | 7.8 | 0.00 | 0.00 | 0.00 | 31 | 1001.4 |
| 20260509002305 | 70 | 254 | 0.0 | 7.8 | 0.00 | 0.00 | 0.00 | 31 | 1001.2 |
| 20260509002217 | 70 | 245 | 0.0 | 7.8 | 0.00 | 0.00 | 0.00 | 31 | 1001.2 |
| 20260509002017 | 70 | 248 | 0.0 | 10.4 | 0.00 | 0.00 | 0.00 | 31 | 1001.2 |
| 20260509001803 | 70 | 224 | 0.0 | 10.4 | 0.00 | 0.00 | 0.00 | 32 | 1001.2 |
| 20260509001620 | 70 | 248 | 0.0 | 10.4 | 0.00 | 0.00 | 0.00 | 31 | 1001.2 |
| 20260509001413 | 70 | 238 | 0.0 | 10.4 | 0.00 | 0.00 | 0.00 | 30 | 1001.3 |
| 20260509001319 | 70 | 261 | 0.0 | 10.4 | 0.00 | 0.00 | 0.00 | 31 | 1001.3 |
| 20260509001307 | 70 | 248 | 0.0 | 10.4 | 0.00 | 0.00 | 0.00 | 31 | 1001.3 |
| 20260509001046 | 70 | 228 | 0.0 | 8.7 | 0.00 | 0.00 | 0.00 | 32 | 1001.2 |
| 20260509001038 | 70 | 248 | 0.0 | 5.2 | 0.00 | 0.00 | 0.00 | 32 | 1001.2 |
| 20260509000735 | 70 | 257 | 0.0 | 8.7 | 0.00 | 0.00 | 0.00 | 31 | 1001.2 |
| 20260509000534 | 70 | 233 | 0.0 | 8.7 | 0.00 | 0.00 | 0.00 | 31 | 1001.1 |
| 20260509000337 | 71 | 213 | 0.0 | 8.7 | 0.00 | 0.00 | 0.00 | 30 | 1001.2 |
| 20260509000303 | 71 | 240 | 0.0 | 8.7 | 0.00 | 0.00 | 0.00 | 31 | 1001.2 |
| 20260509000241 | 71 | 264 | 0.0 | 8.7 | 0.00 | 0.00 | 0.00 | 30 | 1001.2 |
| 20260508235935 | 71 | 245 | 0.0 | 8.7 | 0.00 | 0.00 | 0.00 | 29 | 1001.1 |
| 20260508235802 | 71 | 264 | 0.0 | 8.7 | 0.00 | 0.00 | 0.00 | 31 | 1001.1 |
| 20260508235726 | 71 | 230 | 0.0 | 8.7 | 0.00 | 0.00 | 0.00 | 31 | 1001.1 |
| 20260508235528 | 71 | 243 | 0.0 | 8.7 | 0.00 | 0.00 | 0.00 | 32 | 1001.1 |
| 20260508235325 | 71 | 251 | 0.0 | 8.7 | 0.00 | 0.00 | 0.00 | 30 | 1001.2 |
| 20260508235301 | 71 | 251 | 0.0 | 8.7 | 0.00 | 0.00 | 0.00 | 31 | 1001.2 |
| 20260508235126 | 71 | 224 | 0.0 | 8.7 | 0.00 | 0.00 | 0.00 | 31 | 1001.2 |
| 20260508234926 | 71 | 244 | 0.0 | 5.2 | 0.00 | 0.00 | 0.00 | 32 | 1001.2 |
| 20260508234802 | 72 | 244 | 0.0 | 5.2 | 0.00 | 0.00 | 0.00 | 32 | 1001.1 |
| 20260508234724 | 71 | 217 | 0.0 | 5.2 | 0.00 | 0.00 | 0.00 | 32 | 1001.1 |
| 20260508234629 | 72 | 227 | 0.0 | 5.2 | 0.00 | 0.00 | 0.00 | 30 | 1001.2 |
| 20260508234329 | 72 | 245 | 0.0 | 5.2 | 0.00 | 0.00 | 0.00 | 32 | 1001.2 |
| 20260508234301 | 72 | 241 | 0.0 | 5.2 | 0.00 | 0.00 | 0.00 | 32 | 1001.2 |
| 20260508234126 | 72 | 224 | 0.0 | 8.7 | 0.00 | 0.00 | 0.00 | 31 | 1001.2 |
| 20260508233927 | 71 | 197 | 0.0 | 8.7 | 0.00 | 0.00 | 0.00 | 31 | 1001.2 |
| 20260508233802 | 71 | 173 | 0.0 | 8.7 | 0.00 | 0.00 | 0.00 | 34 | 1001.3 |
| 20260508233723 | 71 | 258 | 0.0 | 8.7 | 0.00 | 0.00 | 0.00 | 33 | 1001.3 |
| 20260508233522 | 71 | 266 | 0.0 | 8.7 | 0.00 | 0.00 | 0.00 | 32 | 1001.3 |
| 20260508233301 | 71 | 254 | 0.0 | 8.7 | 0.00 | 0.00 | 0.00 | 31 | 1001.2 |
| 20260508233122 | 71 | 257 | 0.0 | 8.7 | 0.00 | 0.00 | 0.00 | 31 | 1001.4 |
| 20260508233026 | 71 | 302 | 0.0 | 8.7 | 0.00 | 0.00 | 0.00 | 30 | 1001.3 |
| 20260508232805 | 71 | 247 | 0.0 | 8.7 | 0.00 | 0.00 | 0.00 | 32 | 1001.3 |
| 20260508232726 | 71 | 243 | 0.0 | 8.7 | 0.00 | 0.00 | 0.00 | 30 | 1001.3 |
| 20260508232522 | 71 | 255 | 0.0 | 8.7 | 0.00 | 0.00 | 0.00 | 30 | 1001.2 |
| 20260508232323 | 71 | 231 | 0.0 | 8.7 | 0.00 | 0.00 | 0.00 | 31 | 1001.3 |
| 20260508232301 | 71 | 230 | 0.0 | 8.7 | 0.00 | 0.00 | 0.00 | 31 | 1001.3 |
| 20260508232122 | 71 | 258 | 0.0 | 11.3 | 0.00 | 0.00 | 0.00 | 30 | 1001.2 |